GFSNGP_850_temp_000.txt.gz
Temp
7 8 7 8 8 7 6 7 7 9 7 8 8 7 9 9 9 9 8 8 7 6 6 6 5 5 5 4 3 2 1 1 -0 -2 -2 -2 -2 -2 -3 -3 -3 -4 -4 -4
6 6 6 5 6 6 6 6 6 7 6 8 9 8 8 9 9 8 7 6 5 5 5 4 5 5 3 3 2 1 0 -1 -2 -2 -2 -3 -3 -4 -4 -4 -4 -4 -3 -4
4 4 4 6 8 7 8 7 7 7 9 8 7 7 7 7 7 6 5 4 4 4 4 4 3 3 2 2 1 0 -1 -2 -3 -4 -4 -4 -4 -3 -3 -4 -4 -4 -4 -5
3 6 6 9 9 9 8 7 7 6 6 7 8 8 7 7 7 5 4 3 4 4 3 3 2 2 1 0 -0 -1 -1 -2 -2 -3 -3 -3 -3 -4 -4 -4 -5 -5 -6 -6
6 6 6 8 9 10 8 7 8 7 7 8 8 7 7 6 4 2 2 1 3 3 3 2 2 1 -0 -1 -1 -2 -2 -3 -3 -3 -4 -4 -4 -4 -5 -6 -6 -6 -7 -7
3 5 6 7 8 9 8 5 7 8 8 8 7 4 6 2 2 1 2 3 3 2 3 2 1 -0 -1 -1 -2 -2 -2 -3 -3 -4 -4 -4 -5 -5 -6 -6 -7 -7 -8 -8
6 5 4 5 7 8 6 7 8 8 7 6 4 3 1 0 1 3 3 3 2 2 2 1 -0 -1 -1 -2 -2 -3 -3 -4 -4 -4 -4 -5 -5 -6 -7 -7 -7 -8 -8 -9
2 3 4 7 8 7 8 9 7 7 6 4 3 2 1 2 4 4 3 3 2 2 1 0 -1 -1 -3 -3 -3 -3 -4 -4 -4 -5 -5 -5 -6 -7 -7 -7 -8 -9 -9 -9
6 4 7 8 7 9 8 6 5 5 3 2 1 1 3 3 3 3 3 2 2 1 1 -0 -1 -2 -2 -2 -3 -3 -4 -4 -5 -5 -5 -6 -7 -7 -8 -8 -9 -10 -10 -11
6 7 7 8 8 6 5 4 3 2 1 1 1 3 3 2 2 2 2 2 1 1 -0 -1 -2 -2 -2 -2 -3 -4 -4 -4 -5 -5 -6 -6 -7 -8 -8 -9 -10 -11 -11 -12
5 7 7 7 6 5 4 3 3 1 2 2 2 2 2 2 2 1 1 1 1 0 -1 -1 -2 -2 -2 -3 -3 -4 -4 -5 -5 -6 -6 -7 -8 -8 -9 -10 -11 -12 -12 -12
6 7 5 5 5 4 3 2 1 2 2 2 2 1 1 1 1 1 0 0 0 -1 -1 -1 -2 -2 -2 -3 -4 -4 -4 -5 -6 -6 -6 -7 -8 -9 -9 -10 -11 -12 -12 -13
6 6 6 5 3 2 1 2 2 2 2 2 2 1 1 0 0 -0 -0 -1 -1 -1 -2 -2 -2 -3 -3 -3 -4 -4 -5 -6 -6 -6 -7 -8 -8 -9 -10 -10 -11 -12 -13 -13
6 5 4 2 1 1 0 1 2 2 2 2 1 1 0 -1 -1 -2 -2 -2 -2 -3 -3 -3 -3 -3 -4 -4 -4 -5 -5 -6 -7 -7 -8 -8 -9 -10 -11 -12 -12 -12 -13 -13
4 4 3 1 1 1 1 1 1 1 1 1 0 -1 -2 -2 -2 -3 -3 -3 -3 -4 -3 -4 -3 -4 -4 -4 -4 -6 -7 -7 -7 -7 -8 -9 -10 -11 -11 -12 -12 -13 -13 -13
2 2 1 1 0 1 1 1 1 1 0 -0 -0 -1 -2 -2 -3 -4 -4 -4 -4 -4 -4 -4 -4 -4 -5 -5 -6 -8 -8 -7 -7 -8 -9 -10 -10 -11 -11 -12 -13 -13 -14 -14
1 1 1 1 2 2 1 1 0 0 -0 -1 -1 -1 -2 -2 -3 -4 -5 -5 -5 -5 -5 -4 -5 -5 -5 -6 -7 -8 -7 -7 -8 -9 -9 -10 -11 -11 -12 -13 -13 -13 -14 -14
2 2 2 1 1 1 0 0 -0 -1 -1 -1 -1 -2 -2 -3 -3 -4 -5 -5 -5 -5 -5 -5 -6 -5 -6 -8 -9 -9 -8 -8 -8 -9 -9 -10 -11 -11 -12 -13 -13 -14 -14 -15
1 1 1 1 0 -0 -0 -1 -1 -1 -1 -1 -1 -2 -3 -3 -4 -5 -6 -6 -6 -5 -6 -6 -5 -7 -9 -9 -9 -9 -9 -9 -9 -9 -10 -10 -11 -11 -12 -13 -13 -14 -15 -15
1 1 0 -0 -1 -1 -1 -1 -2 -2 -2 -2 -2 -2 -3 -4 -5 -5 -6 -6 -6 -6 -6 -6 -7 -9 -9 -10 -8 -9 -10 -10 -10 -10 -10 -10 -11 -11 -12 -13 -13 -14 -15 -15
-0 -1 -1 -1 -1 -1 -1 -2 -2 -2 -2 -2 -3 -3 -4 -4 -5 -6 -5 -5 -6 -7 -7 -8 -9 -9 -9 -10 -9 -9 -10 -10 -10 -11 -10 -11 -11 -12 -12 -13 -13 -14 -14 -14
-1 -1 -1 -1 -2 -2 -2 -2 -3 -3 -3 -3 -3 -4 -4 -4 -5 -6 -5 -5 -6 -7 -8 -9 -9 -9 -10 -10 -9 -10 -10 -10 -11 -11 -11 -10 -11 -11 -12 -13 -13 -14 -14 -14
-1 -2 -2 -2 -2 -2 -2 -3 -3 -4 -4 -4 -3 -4 -4 -5 -5 -5 -4 -5 -6 -7 -9 -9 -10 -10 -10 -10 -11 -10 -10 -10 -11 -11 -10 -10 -10 -11 -12 -12 -13 -13 -13 -13
-2 -2 -2 -2 -2 -2 -3 -3 -4 -4 -4 -4 -4 -4 -4 -5 -5 -5 -5 -5 -6 -6 -8 -9 -10 -10 -10 -10 -11 -11 -11 -11 -11 -11 -10 -10 -10 -10 -11 -12 -12 -12 -13 -13
-2 -2 -2 -2 -3 -4 -4 -4 -4 -4 -4 -5 -4 -4 -4 -5 -5 -5 -5 -5 -6 -7 -8 -9 -10 -10 -10 -10 -10 -10 -10 -10 -11 -10 -10 -10 -10 -10 -11 -11 -12 -12 -12 -12
-2 -2 -2 -3 -4 -5 -5 -5 -5 -4 -5 -5 -5 -5 -5 -5 -5 -6 -6 -6 -6 -7 -9 -9 -9 -10 -10 -10 -10 -10 -10 -10 -10 -10 -10 -10 -10 -10 -11 -11 -11 -12 -12 -12
-2 -2 -2 -2 -3 -5 -5 -5 -5 -5 -5 -5 -5 -5 -5 -5 -5 -6 -6 -6 -7 -9 -9 -9 -10 -10 -10 -11 -10 -10 -10 -10 -10 -10 -10 -11 -11 -11 -11 -11 -11 -12 -12 -13

GFSNGP_850_temp_003.txt.gz
Temp
9 9 9 9 9 9 9 9 9 11 10 11 11 10 9 9 9 9 8 8 6 5 5 4 4 4 4 4 3 2 1 0 -1 -1 -2 -2 -3 -4 -4 -4 -3 -3 -3 -3
7 7 7 6 8 8 8 8 8 9 9 10 9 8 8 8 8 7 6 4 4 4 4 4 4 4 3 3 2 0 -0 -1 -2 -2 -3 -3 -3 -3 -3 -3 -4 -4 -4 -5
7 5 6 8 9 8 9 9 10 9 11 8 9 8 9 8 6 4 3 2 3 3 4 4 3 2 3 2 0 -1 -1 -2 -2 -3 -3 -3 -3 -4 -4 -4 -5 -5 -5 -6
6 6 8 11 9 10 9 9 9 8 8 8 8 7 6 4 3 2 2 1 3 4 3 3 2 2 2 1 -0 -1 -2 -2 -3 -3 -3 -4 -4 -4 -5 -5 -5 -6 -6 -7
6 7 7 10 10 9 9 10 8 8 8 8 8 6 6 3 2 2 2 4 4 3 3 2 2 2 1 0 -1 -2 -2 -3 -3 -3 -4 -4 -4 -5 -5 -6 -6 -7 -7 -8
5 6 7 9 9 8 8 8 8 8 8 8 7 5 7 2 1 1 3 3 3 2 2 2 2 1 -0 -1 -2 -3 -4 -3 -4 -4 -4 -5 -5 -5 -6 -6 -7 -8 -8 -9
6 6 7 7 7 8 7 7 7 7 7 6 5 2 2 1 2 2 3 3 3 2 2 2 1 0 -1 -1 -2 -3 -3 -4 -4 -4 -5 -5 -5 -6 -7 -7 -8 -8 -9 -9
3 4 5 7 7 7 7 6 5 5 3 2 2 1 1 2 2 2 2 2 2 2 2 1 0 -0 -1 -2 -2 -3 -3 -4 -4 -5 -5 -5 -6 -6 -7 -8 -8 -9 -9 -11
6 7 7 7 8 6 5 4 4 4 3 2 1 2 2 2 2 2 1 1 1 1 1 1 -0 -1 -1 -2 -2 -3 -3 -4 -4 -5 -5 -6 -6 -7 -8 -9 -10 -10 -11 -12
6 7 7 8 6 5 5 5 3 2 2 2 1 2 2 2 2 1 1 1 1 1 1 0 -1 -1 -2 -2 -2 -2 -3 -4 -5 -5 -6 -6 -7 -8 -9 -10 -11 -11 -12 -12
5 7 6 7 6 5 4 3 2 2 2 2 1 2 2 2 1 1 0 0 -0 -0 -0 -0 -1 -2 -2 -3 -3 -3 -4 -4 -5 -6 -6 -7 -7 -8 -9 -10 -11 -12 -13 -13
6 6 5 5 4 4 3 2 2 2 2 2 2 2 1 1 1 0 -0 -1 -1 -1 -2 -2 -2 -3 -3 -3 -3 -3 -4 -5 -5 -6 -7 -7 -8 -8 -9 -10 -11 -12 -12 -13
6 5 4 3 3 3 2 2 2 2 2 2 2 1 1 0 -0 -1 -1 -2 -2 -3 -3 -3 -4 -3 -4 -3 -4 -4 -5 -5 -6 -7 -7 -8 -8 -9 -10 -10 -11 -12 -13 -13
5 4 2 2 1 1 1 1 1 2 2 1 1 1 -0 -1 -1 -1 -2 -2 -3 -3 -4 -4 -4 -5 -4 -4 -4 -5 -5 -6 -7 -7 -8 -8 -9 -9 -10 -11 -12 -12 -13 -13
4 3 2 1 0 1 1 2 2 2 1 1 0 -0 -1 -1 -1 -2 -2 -3 -4 -4 -5 -5 -5 -5 -5 -5 -4 -6 -7 -7 -7 -7 -8 -9 -9 -10 -11 -11 -12 -13 -13 -14
1 1 1 1 2 2 2 1 1 1 0 -1 -1 -1 -1 -1 -2 -2 -3 -4 -4 -5 -5 -5 -6 -5 -5 -5 -6 -6 -7 -8 -8 -8 -8 -9 -10 -10 -11 -11 -12 -13 -14 -14
2 1 2 1 1 1 0 0 -1 -1 -1 -1 -1 -1 -1 -1 -2 -2 -3 -5 -5 -6 -6 -6 -6 -6 -6 -7 -8 -9 -8 -8 -8 -8 -9 -10 -10 -10 -11 -12 -12 -13 -14 -14
1 1 1 0 0 0 0 -0 -1 -1 -1 -1 -2 -2 -2 -2 -3 -3 -5 -5 -6 -6 -5 -5 -6 -7 -7 -8 -9 -9 -9 -9 -9 -9 -10 -10 -11 -11 -11 -11 -12 -13 -14 -14
1 1 1 0 0 -0 -1 -1 -1 -2 -1 -2 -2 -2 -3 -3 -3 -4 -5 -5 -6 -6 -5 -6 -6 -6 -8 -9 -10 -9 -9 -10 -10 -10 -10 -11 -11 -11 -11 -11 -12 -13 -13 -14
0 0 -0 -1 -1 -1 -2 -2 -2 -2 -2 -3 -3 -3 -3 -3 -4 -4 -5 -5 -5 -5 -6 -6 -7 -8 -9 -10 -10 -9 -10 -10 -10 -10 -11 -11 -11 -11 -11 -11 -12 -12 -13 -13
-0 -1 -1 -1 -2 -2 -2 -2 -2 -2 -3 -3 -4 -4 -4 -3 -4 -4 -5 -5 -5 -5 -6 -8 -9 -9 -9 -10 -10 -10 -10 -10 -10 -10 -11 -11 -10 -11 -11 -11 -12 -12 -12 -13
-1 -1 -1 -2 -2 -2 -2 -2 -2 -3 -3 -3 -4 -5 -4 -3 -4 -4 -5 -5 -5 -5 -6 -7 -8 -9 -10 -10 -10 -10 -10 -10 -10 -11 -11 -10 -10 -10 -11 -11 -11 -12 -12 -12
-1 -1 -2 -2 -2 -2 -2 -2 -3 -3 -4 -4 -5 -5 -5 -4 -4 -4 -4 -5 -5 -5 -6 -6 -7 -9 -9 -10 -10 -10 -10 -10 -11 -11 -11 -10 -10 -10 -10 -11 -11 -11 -12 -12
-2 -2 -2 -2 -2 -2 -2 -2 -3 -4 -4 -4 -5 -5 -5 -5 -4 -4 -5 -5 -5 -5 -6 -6 -7 -8 -9 -9 -10 -10 -10 -10 -10 -10 -10 -10 -10 -10 -10 -11 -11 -12 -12 -12
-2 -2 -2 -2 -2 -2 -2 -4 -4 -4 -4 -5 -5 -5 -5 -5 -5 -5 -5 -5 -5 -5 -6 -7 -8 -9 -9 -10 -10 -10 -10 -10 -10 -10 -10 -10 -10 -10 -10 -11 -11 -12 -12 -12
-2 -2 -2 -2 -3 -2 -3 -5 -5 -6 -5 -5 -5 -5 -6 -6 -5 -5 -6 -6 -6 -6 -6 -7 -8 -9 -10 -10 -10 -10 -10 -9 -9 -10 -10 -10 -11 -11 -11 -11 -11 -11 -12 -12
-2 -2 -2 -3 -3 -3 -4 -5 -6 -6 -6 -6 -5 -5 -6 -5 -5 -5 -6 -6 -6 -6 -6 -8 -9 -9 -10 -10 -10 -10 -10 -9 -9 -9 -9 -10 -10 -10 -11 -11 -11 -11 -12 -12

GFSNGP_850_temp_006.txt.gz
Temp
14 14 14 13 13 14 13 13 12 13 14 15 15 14 12 11 11 10 10 8 7 6 5 4 4 4 3 2 2 2 1 -0 -1 -2 -2 -2 -2 -3 -3 -3 -4 -4 -4 -4
11 12 13 12 13 13 13 13 13 13 13 14 12 11 11 10 10 9 7 6 4 4 4 4 4 3 2 2 1 0 -0 -1 -2 -2 -2 -3 -3 -3 -4 -4 -4 -5 -5 -5
10 9 10 9 12 13 14 13 13 12 13 12 12 11 10 9 8 6 4 3 4 3 4 4 3 2 2 2 1 -0 -1 -2 -2 -2 -3 -3 -3 -4 -4 -4 -5 -5 -6 -6
8 8 10 13 14 13 13 13 14 13 12 11 11 10 10 6 4 2 2 2 3 4 4 3 3 3 2 1 1 -0 -1 -2 -2 -3 -3 -3 -4 -4 -5 -5 -5 -6 -6 -7
7 9 11 12 13 12 12 12 12 12 11 10 9 9 8 3 2 2 2 2 3 3 3 3 3 2 1 1 0 -1 -1 -2 -3 -3 -4 -4 -4 -5 -5 -5 -6 -6 -7 -8
7 7 9 13 12 10 11 11 10 8 6 6 8 7 5 3 2 2 3 3 3 3 3 3 2 1 1 1 0 -1 -2 -3 -3 -4 -4 -4 -5 -5 -5 -6 -6 -7 -8 -9
7 7 9 12 10 9 8 9 7 5 5 5 5 3 2 1 2 3 3 3 3 3 3 2 2 1 0 0 -1 -1 -2 -3 -3 -4 -4 -5 -5 -5 -6 -6 -7 -9 -9 -10
6 6 7 9 10 7 9 7 5 4 4 4 3 2 2 3 3 3 3 3 3 2 2 1 1 1 0 -0 -1 -2 -2 -3 -4 -4 -5 -5 -5 -5 -6 -6 -8 -9 -9 -9
9 10 12 11 9 7 6 5 5 4 4 3 3 3 3 3 3 3 3 2 2 1 0 1 1 0 -0 -0 -1 -3 -3 -3 -4 -4 -5 -5 -5 -6 -7 -7 -9 -9 -9 -10
8 10 11 9 9 6 5 4 4 3 3 2 3 3 3 3 3 2 2 1 0 -0 -0 -0 -0 -1 -2 -2 -3 -4 -4 -4 -4 -5 -5 -6 -6 -7 -7 -8 -9 -10 -10 -10
9 9 9 9 6 4 4 3 3 3 3 3 3 3 3 2 2 1 1 0 -1 -1 -1 -1 -1 -2 -3 -4 -5 -4 -4 -4 -5 -6 -6 -6 -7 -7 -9 -9 -10 -11 -12 -12
6 7 7 6 4 3 3 3 3 2 3 3 2 2 2 1 1 0 -0 -1 -1 -1 -2 -2 -3 -3 -5 -6 -5 -5 -4 -5 -6 -6 -7 -7 -7 -8 -9 -10 -11 -12 -12 -13
7 5 4 4 4 3 3 2 2 2 2 2 2 2 1 0 -0 -1 -1 -1 -1 -2 -3 -3 -5 -5 -6 -5 -5 -5 -5 -5 -7 -7 -7 -8 -8 -9 -9 -10 -11 -12 -13 -13
5 5 3 3 3 2 2 2 2 2 2 2 1 0 -0 -0 -1 -1 -1 -2 -3 -4 -4 -5 -6 -6 -6 -6 -6 -5 -5 -7 -7 -8 -8 -9 -9 -10 -10 -11 -11 -11 -12 -14
3 3 3 2 2 2 2 2 2 2 2 1 0 -0 -1 -1 -2 -2 -3 -4 -4 -5 -5 -5 -6 -6 -6 -6 -6 -7 -8 -8 -7 -8 -8 -8 -10 -10 -10 -11 -11 -12 -12 -13
2 2 2 2 2 2 2 1 1 1 0 -0 -1 -1 -2 -3 -3 -2 -2 -3 -5 -5 -5 -6 -6 -6 -6 -6 -8 -8 -9 -8 -8 -9 -9 -10 -10 -10 -11 -11 -11 -12 -13 -14
2 2 2 2 2 1 0 -0 -1 -1 -1 -2 -1 -2 -2 -2 -2 -3 -3 -4 -4 -5 -6 -6 -6 -7 -6 -8 -8 -8 -9 -9 -8 -9 -10 -10 -11 -11 -11 -12 -12 -12 -13 -14
2 1 1 0 0 -0 -1 -1 -1 -1 -1 -2 -2 -2 -2 -3 -3 -4 -4 -4 -4 -5 -6 -6 -6 -6 -7 -9 -9 -9 -9 -9 -10 -10 -10 -10 -11 -11 -12 -12 -12 -12 -13 -14
1 1 1 0 -0 -1 -1 -1 -1 -2 -2 -2 -2 -2 -3 -3 -4 -4 -5 -5 -4 -5 -6 -6 -6 -6 -9 -9 -10 -10 -10 -10 -9 -9 -10 -10 -10 -11 -11 -12 -12 -13 -13 -14
0 0 0 -0 -1 -1 -1 -2 -2 -2 -2 -2 -3 -3 -4 -4 -5 -5 -4 -4 -5 -6 -6 -6 -7 -8 -9 -10 -10 -10 -10 -10 -10 -10 -10 -10 -11 -11 -11 -11 -12 -13 -13 -14
0 -0 -1 -1 -1 -1 -2 -2 -2 -2 -2 -3 -4 -4 -4 -5 -6 -4 -4 -5 -5 -5 -5 -6 -7 -8 -9 -9 -10 -10 -10 -10 -10 -10 -10 -10 -10 -11 -11 -11 -12 -12 -13 -14
-0 -0 -1 -1 -1 -2 -2 -2 -2 -3 -3 -3 -4 -4 -5 -5 -5 -5 -5 -5 -5 -5 -5 -6 -7 -7 -8 -9 -9 -9 -10 -10 -10 -10 -10 -11 -10 -10 -10 -11 -12 -12 -13 -14
-1 -1 -2 -2 -2 -2 -2 -2 -2 -2 -3 -4 -4 -5 -5 -5 -5 -5 -5 -5 -5 -5 -5 -6 -6 -7 -7 -8 -9 -10 -10 -10 -10 -10 -10 -10 -10 -10 -10 -10 -11 -11 -12 -13
-1 -2 -2 -2 -2 -2 -2 -2 -2 -2 -3 -4 -6 -6 -6 -6 -5 -5 -6 -5 -5 -5 -5 -6 -6 -7 -8 -9 -9 -10 -10 -10 -10 -10 -10 -10 -10 -10 -10 -10 -10 -11 -11 -12
-2 -2 -2 -2 -2 -3 -3 -3 -2 -3 -5 -6 -6 -6 -6 -6 -6 -6 -6 -5 -5 -5 -5 -6 -6 -7 -8 -9 -9 -10 -10 -9 -9 -9 -10 -10 -10 -10 -10 -10 -11 -11 -11 -11
-2 -2 -2 -2 -2 -3 -3 -4 -4 -5 -6 -6 -6 -6 -6 -6 -6 -6 -6 -6 -6 -5 -5 -6 -6 -7 -8 -9 -10 -10 -10 -9 -9 -9 -9 -9 -9 -10 -10 -10 -10 -11 -11 -11
-2 -2 -2 -2 -3 -3 -4 -5 -6 -6 -6 -6 -7 -7 -6 -6 -6 -6 -6 -6 -6 -6 -6 -6 -7 -8 -8 -9 -10 -10 -10 -9 -9 -9 -9 -9 -9 -9 -9 -10 -10 -11 -11 -11

GFSNGP_850_temp_009.txt.gz
Temp
16 17 17 16 16 16 16 16 14 15 16 17 17 15 14 13 13 12 11 10 8 7 6 5 5 6 5 5 4 4 3 3 2 1 0 -0 -1 -1 -2 -2 -2 -3 -3 -3
13 16 16 15 16 16 17 16 16 16 16 17 15 14 14 12 11 11 9 7 6 6 5 6 6 5 5 4 4 3 2 2 1 0 -1 -1 -2 -2 -2 -2 -3 -3 -4 -4
11 13 11 10 14 16 16 16 15 14 15 15 15 12 10 9 10 8 6 4 5 5 5 6 6 5 5 5 4 3 3 2 1 -1 -2 -2 -2 -2 -2 -3 -3 -4 -4 -4
9 8 10 15 17 16 15 15 16 16 16 14 12 11 10 8 6 5 4 4 5 5 5 5 5 5 5 4 4 3 2 2 0 -1 -2 -2 -2 -2 -3 -3 -4 -4 -4 -5
8 11 13 15 14 14 13 13 15 14 12 11 10 10 9 6 5 4 4 5 5 5 5 5 5 5 5 4 3 3 2 1 0 -1 -2 -2 -2 -3 -3 -3 -4 -4 -5 -6
8 8 10 14 15 13 13 12 12 11 9 7 8 8 10 5 4 4 5 6 5 5 5 5 4 4 4 4 3 2 1 1 -1 -1 -2 -3 -3 -3 -3 -4 -4 -5 -7 -8
9 8 11 14 12 12 10 11 10 8 6 7 7 7 5 4 5 5 5 5 5 5 4 4 3 3 3 3 3 2 -0 -0 -1 -2 -3 -3 -3 -3 -3 -4 -5 -7 -7 -8
8 7 8 12 12 9 11 10 8 6 6 6 6 5 5 5 5 5 5 5 5 4 3 3 2 2 2 2 2 1 -1 -1 -2 -3 -3 -3 -3 -3 -4 -5 -6 -7 -8 -8
11 12 14 12 11 10 9 8 6 5 4 4 5 5 5 5 5 5 5 4 4 3 2 2 1 1 1 0 -1 -2 -3 -3 -4 -4 -3 -3 -3 -4 -5 -5 -7 -8 -8 -9
11 12 12 11 10 8 6 5 4 4 4 5 5 5 5 5 5 4 4 3 3 2 1 1 1 0 -0 -2 -3 -3 -4 -4 -4 -4 -3 -4 -4 -4 -5 -7 -8 -8 -9 -10
12 12 12 11 8 6 5 4 3 5 5 4 4 5 4 4 4 3 3 2 1 1 1 1 0 -1 -2 -3 -4 -5 -5 -4 -4 -4 -4 -4 -5 -6 -6 -8 -9 -10 -11 -12
10 11 9 8 6 5 5 5 5 5 4 4 4 4 4 3 3 2 2 1 1 1 1 -0 -1 -2 -4 -5 -5 -6 -6 -5 -5 -5 -5 -6 -6 -6 -7 -8 -9 -10 -10 -11
11 8 6 5 5 4 5 5 4 4 4 4 4 4 3 2 2 1 1 1 0 -0 -1 -2 -3 -4 -5 -6 -6 -5 -6 -6 -6 -6 -6 -7 -7 -8 -8 -8 -9 -10 -10 -11
6 5 4 3 4 4 4 4 4 4 4 4 3 2 2 1 1 0 0 -0 -1 -2 -3 -3 -4 -5 -5 -6 -6 -7 -7 -7 -7 -7 -7 -8 -8 -9 -9 -9 -9 -10 -11 -11
4 3 3 3 4 4 4 4 4 4 3 2 2 1 0 -0 -1 -1 -1 -2 -4 -5 -4 -4 -5 -5 -6 -6 -7 -7 -7 -8 -8 -8 -8 -9 -9 -9 -9 -10 -10 -10 -11 -11
3 4 4 4 4 4 4 3 3 2 2 1 -0 -1 -1 -2 -2 -2 -3 -3 -4 -5 -4 -5 -5 -5 -7 -7 -7 -6 -6 -8 -8 -8 -8 -9 -9 -9 -10 -10 -10 -10 -11 -11
4 4 4 3 3 3 2 2 1 1 -1 -1 -2 -2 -1 -2 -2 -3 -3 -4 -5 -5 -5 -5 -5 -6 -6 -6 -7 -7 -7 -8 -8 -9 -9 -9 -9 -10 -10 -10 -10 -10 -11 -12
4 3 3 2 2 2 1 0 -1 -1 -2 -2 -2 -2 -2 -2 -3 -3 -3 -5 -5 -5 -4 -5 -5 -6 -6 -8 -8 -9 -9 -8 -9 -9 -9 -9 -9 -10 -10 -10 -11 -11 -11 -12
2 2 2 1 1 0 -1 -1 -1 -1 -1 -1 -2 -2 -2 -3 -3 -4 -5 -5 -5 -5 -5 -5 -5 -6 -6 -8 -9 -9 -9 -9 -9 -9 -9 -10 -10 -10 -10 -10 -11 -11 -11 -12
2 1 1 1 0 -0 -1 -1 -1 -2 -2 -2 -2 -3 -3 -3 -4 -4 -5 -5 -5 -5 -5 -6 -6 -6 -6 -8 -9 -9 -9 -9 -9 -9 -9 -10 -10 -10 -10 -10 -11 -11 -11 -12
1 1 1 0 -0 -1 -1 -1 -2 -2 -2 -2 -2 -3 -4 -3 -5 -5 -5 -5 -5 -5 -5 -5 -6 -7 -7 -8 -9 -9 -9 -9 -9 -9 -9 -9 -10 -10 -10 -10 -10 -11 -11 -12
-0 -0 -0 -0 -1 -1 -1 -2 -2 -2 -2 -2 -2 -3 -4 -6 -6 -6 -6 -5 -5 -5 -5 -5 -5 -6 -7 -7 -8 -9 -9 -9 -9 -9 -9 -9 -9 -10 -10 -10 -10 -11 -11 -12
-0 -0 -1 -1 -1 -2 -2 -2 -2 -2 -2 -2 -3 -5 -6 -6 -6 -6 -5 -5 -5 -5 -5 -5 -6 -6 -6 -7 -7 -9 -9 -10 -10 -9 -9 -10 -10 -10 -10 -10 -10 -11 -11 -12
-1 -1 -1 -2 -2 -2 -2 -2 -3 -3 -3 -3 -5 -5 -6 -6 -6 -6 -5 -5 -6 -5 -5 -5 -5 -6 -6 -7 -8 -9 -9 -9 -9 -9 -9 -9 -9 -10 -10 -10 -10 -11 -11 -12
-1 -1 -2 -2 -2 -2 -2 -2 -3 -4 -5 -5 -5 -6 -6 -6 -6 -6 -5 -6 -6 -6 -5 -5 -5 -6 -6 -7 -8 -9 -9 -10 -9 -10 -10 -10 -10 -10 -10 -10 -10 -10 -11 -11
-2 -2 -2 -2 -2 -2 -3 -4 -4 -4 -5 -6 -6 -6 -6 -7 -7 -6 -6 -6 -6 -6 -6 -5 -6 -6 -6 -7 -8 -9 -9 -10 -10 -10 -9 -9 -9 -9 -10 -10 -10 -10 -11 -11
-2 -3 -3 -3 -3 -3 -3 -3 -4 -4 -6 -6 -6 -6 -6 -7 -7 -6 -6 -6 -6 -6 -6 -6 -6 -6 -6 -7 -8 -8 -9 -10 -10 -10 -9 -9 -9 -9 -9 -9 -9 -9 -10 -10

GFSNGP_850_temp_012.txt.gz
Temp
16 17 17 17 17 17 17 17 14 15 16 17 16 16 13 12 12 12 11 10 8 7 7 6 6 6 6 6 6 5 3 2 3 3 2 1 -0 -1 -2 -2 -2 -2 -3 -3
13 17 15 14 15 16 16 17 17 16 16 17 15 13 12 11 11 10 9 7 6 6 6 6 6 6 6 6 6 4 3 2 2 1 0 -1 -0 -1 -2 -2 -2 -3 -3 -4
12 12 11 11 14 16 16 17 16 14 15 15 13 12 12 11 10 8 7 6 5 6 6 6 6 6 6 5 5 5 4 4 2 1 -0 -2 -1 -2 -2 -2 -3 -3 -3 -4
9 9 11 16 16 16 16 16 16 16 15 13 11 10 10 8 7 6 6 5 6 6 6 6 5 5 5 4 4 4 4 3 1 -1 -1 -1 -2 -2 -2 -3 -3 -3 -4 -5
9 11 13 14 15 14 13 13 15 14 12 11 10 10 9 6 6 5 5 6 6 6 6 6 5 4 4 3 3 3 3 2 0 -1 -1 -2 -2 -2 -3 -3 -3 -4 -5 -5
7 8 10 14 15 13 13 11 12 11 10 9 9 7 8 6 5 6 6 6 6 6 6 5 4 3 3 2 2 2 0 -0 -1 -2 -2 -2 -3 -3 -3 -3 -4 -5 -5 -5
8 8 10 14 14 13 11 10 10 9 8 7 7 6 6 6 6 6 6 6 6 5 5 4 3 2 2 2 1 0 -1 -1 -2 -2 -3 -3 -3 -3 -3 -4 -4 -5 -6 -6
8 8 8 13 13 10 11 10 9 8 6 5 5 5 6 6 6 6 6 5 5 4 4 3 2 2 2 1 0 -1 -2 -3 -3 -3 -4 -3 -3 -3 -4 -4 -5 -6 -6 -8
11 10 13 13 11 10 9 9 7 6 6 4 4 6 6 6 6 5 5 4 4 3 2 2 2 2 1 -0 -1 -2 -3 -4 -3 -4 -4 -4 -4 -4 -4 -5 -6 -6 -8 -9
11 13 13 13 12 9 7 7 5 5 5 5 6 6 5 5 5 5 4 3 3 2 2 2 1 1 -1 -2 -2 -3 -4 -4 -4 -4 -4 -4 -4 -4 -5 -6 -6 -7 -9 -10
12 13 13 11 9 7 6 5 5 5 6 6 5 5 5 5 4 4 3 2 2 2 1 1 0 -1 -2 -3 -4 -4 -5 -5 -5 -5 -4 -5 -5 -5 -6 -7 -7 -8 -9 -10
10 12 11 9 6 6 6 5 5 6 5 5 5 5 4 4 3 3 2 1 1 1 0 -0 -1 -2 -3 -4 -4 -5 -6 -5 -6 -6 -6 -6 -6 -6 -7 -8 -8 -9 -9 -10
11 10 8 6 5 5 5 5 5 5 5 5 4 4 3 2 2 1 1 0 -0 -0 -1 -2 -3 -3 -4 -5 -5 -6 -6 -6 -7 -6 -6 -7 -7 -7 -8 -9 -9 -9 -9 -10
8 6 5 4 4 4 5 5 5 5 4 4 3 2 2 1 0 -0 -1 -1 -1 -2 -2 -4 -4 -4 -4 -5 -5 -6 -6 -7 -7 -7 -7 -7 -8 -8 -9 -9 -9 -9 -10 -10
6 5 5 4 4 5 5 5 4 4 3 3 2 1 -0 -1 -1 -2 -2 -2 -3 -3 -4 -5 -5 -5 -5 -6 -6 -6 -6 -6 -6 -8 -8 -8 -9 -9 -9 -9 -9 -9 -10 -10
5 4 4 5 6 5 5 4 3 3 2 1 -0 -1 -2 -2 -2 -2 -2 -3 -3 -3 -4 -5 -5 -5 -5 -6 -7 -6 -6 -6 -7 -8 -8 -9 -9 -9 -9 -9 -10 -10 -10 -10
5 5 6 5 5 4 3 3 2 1 0 -1 -1 -1 -1 -1 -1 -2 -2 -3 -3 -4 -5 -5 -5 -5 -6 -6 -7 -7 -7 -7 -8 -9 -9 -9 -9 -9 -9 -10 -10 -10 -10 -11
5 5 4 4 3 3 2 1 1 -0 -1 -1 -1 -1 -1 -2 -2 -2 -3 -3 -3 -4 -5 -5 -5 -5 -5 -6 -7 -7 -7 -8 -9 -9 -9 -9 -9 -9 -10 -10 -10 -10 -10 -11
4 3 3 2 2 1 1 0 -0 -1 -1 -1 -1 -2 -2 -2 -2 -3 -3 -4 -5 -6 -6 -5 -5 -5 -6 -6 -6 -7 -9 -9 -9 -9 -9 -9 -9 -10 -10 -10 -10 -10 -10 -11
3 2 1 1 1 1 0 0 -1 -1 -1 -2 -2 -2 -2 -2 -3 -3 -5 -6 -6 -5 -5 -5 -5 -5 -6 -6 -6 -7 -9 -9 -9 -9 -9 -9 -9 -9 -9 -10 -10 -10 -10 -10
1 1 1 1 1 0 -0 -1 -1 -1 -2 -2 -2 -2 -2 -2 -4 -6 -6 -6 -5 -5 -5 -5 -5 -5 -6 -6 -7 -7 -8 -9 -9 -9 -9 -9 -9 -9 -9 -10 -10 -10 -10 -10
1 1 1 1 0 -0 -1 -1 -1 -2 -2 -2 -2 -3 -3 -6 -6 -6 -6 -6 -6 -5 -5 -5 -6 -5 -6 -7 -7 -7 -8 -9 -9 -9 -9 -9 -9 -9 -9 -10 -10 -10 -10 -10
1 0 0 -0 -1 -1 -1 -2 -2 -2 -2 -2 -3 -3 -5 -5 -6 -6 -6 -6 -6 -5 -6 -5 -6 -6 -6 -6 -7 -7 -7 -8 -9 -9 -9 -9 -9 -9 -10 -10 -10 -11 -11 -11
-0 -1 -1 -1 -2 -2 -2 -2 -2 -2 -3 -3 -4 -5 -5 -5 -6 -6 -6 -7 -6 -6 -6 -6 -6 -6 -6 -6 -6 -7 -7 -8 -8 -9 -9 -9 -9 -9 -9 -10 -10 -11 -11 -11
-1 -1 -1 -2 -2 -2 -2 -2 -2 -2 -2 -3 -4 -5 -5 -5 -6 -6 -7 -7 -7 -6 -6 -6 -6 -6 -6 -6 -6 -6 -7 -8 -8 -9 -9 -10 -10 -10 -10 -10 -10 -10 -11 -11
-2 -2 -2 -2 -2 -2 -2 -2 -2 -2 -3 -4 -4 -5 -6 -6 -6 -7 -7 -7 -7 -7 -6 -6 -6 -6 -6 -6 -6 -6 -7 -8 -8 -9 -10 -10 -10 -10 -10 -10 -10 -10 -10 -11
-2 -2 -2 -2 -2 -2 -2 -2 -3 -3 -3 -4 -5 -6 -7 -7 -7 -7 -7 -7 -7 -7 -7 -6 -6 -6 -6 -6 -6 -6 -7 -7 -8 -9 -10 -10 -10 -10 -10 -10 -10 -10 -10 -10

GFSNGP_850_temp_015.txt.gz
Temp
13 14 15 14 14 13 14 13 10 10 13 13 10 10 11 10 10 9 8 8 6 6 6 6 6 6 6 5 5 5 4 4 4 3 1 1 1 -1 -2 -2 -2 -2 -3 -3
12 12 11 11 12 12 13 14 14 14 13 12 11 11 10 9 8 7 7 6 6 6 6 6 6 6 5 5 4 4 3 3 3 2 2 1 -0 -2 -2 -2 -2 -2 -3 -3
8 8 7 7 12 13 14 14 14 12 12 10 9 9 8 7 7 6 6 6 6 6 6 6 6 5 4 4 3 3 2 2 1 1 0 -1 -2 -2 -3 -3 -3 -3 -3 -4
4 4 7 12 14 13 12 12 12 11 9 9 9 7 7 7 6 6 6 6 6 6 6 5 5 4 3 3 3 2 2 1 1 0 -1 -1 -1 -3 -3 -3 -4 -3 -4 -4
5 5 8 12 13 12 11 10 10 9 9 8 9 8 6 6 6 6 6 6 6 6 5 4 4 3 3 2 2 1 1 0 -0 -1 -2 -3 -3 -3 -4 -4 -3 -4 -4 -5
2 3 4 9 12 13 12 6 10 9 7 7 8 3 5 6 6 6 6 6 5 5 4 4 3 2 2 2 1 1 -0 -1 -1 -2 -3 -3 -3 -4 -4 -3 -4 -4 -5 -5
6 2 5 9 13 12 8 7 9 8 7 7 5 6 6 6 6 6 6 5 5 4 3 3 3 2 2 1 1 -0 -1 -1 -3 -3 -3 -4 -4 -5 -4 -4 -4 -5 -5 -6
6 6 4 12 12 8 8 9 9 7 7 6 6 6 6 6 6 5 5 4 4 3 3 2 2 1 1 0 -0 -1 -2 -2 -3 -4 -4 -4 -4 -4 -4 -4 -5 -5 -6 -6
6 5 10 13 13 11 11 9 7 7 6 6 5 5 5 5 5 5 4 3 3 2 2 2 1 0 -0 -1 -1 -2 -2 -4 -4 -4 -4 -4 -4 -4 -5 -5 -6 -6 -7 -8
8 10 12 13 11 10 9 8 7 7 6 5 5 5 5 5 4 3 3 2 2 1 1 1 0 -0 -1 -2 -2 -3 -4 -4 -5 -5 -5 -5 -5 -5 -6 -6 -6 -7 -8 -9
7 11 12 9 9 8 7 6 6 5 5 5 5 5 4 4 3 2 2 1 1 0 0 -0 -1 -1 -1 -3 -3 -4 -4 -4 -5 -5 -6 -6 -6 -6 -6 -7 -7 -8 -9 -9
5 10 10 7 6 6 6 5 5 5 5 5 5 4 3 3 2 2 1 1 0 -0 -1 -1 -2 -2 -3 -4 -4 -4 -5 -5 -5 -6 -7 -7 -7 -7 -7 -7 -8 -9 -9 -10
10 10 9 7 7 6 6 5 5 5 5 4 4 3 3 2 1 1 0 -1 -1 -1 -2 -2 -3 -3 -5 -5 -5 -5 -5 -6 -6 -6 -7 -7 -7 -8 -8 -8 -9 -9 -9 -10
10 8 6 6 6 5 5 5 5 4 4 3 3 3 2 1 0 -0 -1 -1 -2 -2 -3 -3 -3 -5 -5 -5 -5 -6 -6 -6 -7 -7 -7 -7 -8 -9 -9 -9 -9 -9 -10 -10
7 7 7 6 5 5 5 5 4 4 3 3 2 1 0 -0 -1 -1 -2 -2 -2 -3 -3 -3 -5 -5 -6 -5 -6 -6 -6 -6 -7 -7 -7 -9 -9 -9 -9 -9 -10 -10 -10 -10
6 6 5 5 5 5 4 4 3 3 2 2 1 -0 -1 -1 -2 -1 -2 -2 -3 -2 -3 -4 -5 -6 -5 -5 -6 -7 -7 -7 -7 -7 -8 -9 -9 -9 -10 -10 -10 -10 -10 -10
6 4 5 5 5 4 3 3 3 2 1 1 -0 -1 -2 -2 -2 -2 -2 -2 -2 -3 -4 -6 -6 -5 -5 -6 -7 -7 -7 -7 -7 -7 -8 -9 -9 -9 -10 -10 -10 -10 -10 -10
5 5 5 4 3 3 2 2 1 1 0 -1 -1 -1 -2 -2 -2 -2 -2 -2 -2 -3 -5 -6 -6 -6 -6 -5 -6 -6 -7 -8 -8 -8 -9 -9 -9 -9 -10 -10 -10 -10 -10 -10
4 3 3 3 2 2 1 1 0 -0 -1 -1 -1 -2 -2 -2 -3 -3 -3 -5 -6 -6 -5 -6 -5 -5 -5 -5 -6 -6 -7 -7 -9 -9 -9 -9 -9 -9 -10 -10 -10 -10 -10 -10
3 2 2 2 1 1 1 0 -0 -1 -1 -2 -2 -2 -2 -2 -3 -4 -6 -6 -6 -6 -6 -6 -6 -5 -5 -6 -6 -6 -7 -7 -8 -9 -9 -9 -9 -9 -9 -9 -10 -10 -10 -10
2 2 1 1 1 1 0 -0 -1 -1 -1 -2 -2 -2 -2 -3 -4 -5 -6 -6 -6 -6 -5 -5 -6 -6 -5 -6 -6 -7 -7 -7 -8 -9 -9 -9 -9 -9 -9 -9 -10 -10 -10 -10
2 1 0 0 0 0 -0 -1 -1 -1 -2 -2 -2 -2 -3 -3 -4 -5 -5 -6 -6 -6 -6 -6 -6 -6 -6 -6 -6 -7 -7 -7 -8 -8 -9 -9 -9 -9 -9 -9 -10 -10 -10 -10
0 0 -0 -0 -0 -1 -1 -1 -2 -2 -2 -2 -2 -3 -3 -4 -5 -5 -5 -6 -7 -7 -7 -7 -7 -7 -6 -6 -7 -7 -7 -7 -7 -8 -9 -9 -10 -10 -10 -10 -10 -10 -11 -11
-0 -0 -1 -1 -1 -1 -1 -2 -2 -2 -2 -2 -3 -3 -4 -4 -4 -5 -6 -6 -7 -7 -7 -7 -7 -6 -6 -6 -6 -6 -7 -7 -7 -7 -8 -9 -9 -9 -9 -9 -9 -10 -10 -11
-1 -1 -1 -1 -1 -1 -2 -2 -2 -2 -2 -3 -3 -3 -4 -4 -5 -6 -6 -7 -7 -7 -7 -7 -7 -7 -6 -6 -6 -6 -6 -6 -6 -7 -7 -8 -9 -10 -10 -10 -10 -10 -10 -10
-1 -1 -2 -2 -2 -2 -2 -2 -2 -3 -3 -3 -3 -4 -4 -5 -7 -7 -7 -7 -7 -7 -7 -7 -7 -7 -7 -7 -7 -6 -6 -6 -6 -7 -7 -8 -9 -10 -10 -10 -10 -10 -10 -10
-2 -2 -2 -2 -2 -2 -3 -3 -4 -3 -4 -4 -4 -5 -5 -7 -7 -7 -7 -7 -7 -7 -7 -8 -7 -7 -7 -7 -7 -6 -6 -6 -7 -7 -7 -8 -8 -9 -10 -11 -11 -11 -11 -11

GFSNGP_850_temp_021.txt.gz
Temp
10 10 12 13 13 11 11 10 9 10 9 11 8 7 7 8 7 7 7 7 7 7 6 6 6 5 5 5 4 4 3 3 2 1 1 0 -0 -0 -1 -3 -3 -3 -3 -4
11 9 9 11 11 9 9 10 9 10 9 8 8 8 8 8 7 7 7 7 6 6 6 6 5 5 4 4 3 3 3 2 1 1 0 -0 -1 -2 -2 -3 -3 -3 -4 -5
7 6 7 7 8 10 11 11 11 8 9 7 6 7 7 7 7 7 7 6 6 6 5 5 4 4 4 3 3 2 1 1 0 -0 -1 -1 -2 -3 -3 -4 -4 -4 -5 -5
4 3 6 10 10 11 11 10 9 8 7 7 8 8 8 7 7 7 6 6 6 5 5 4 4 3 3 3 2 1 1 -0 -1 -1 -2 -2 -3 -4 -3 -4 -5 -5 -4 -5
3 4 7 11 10 9 10 9 7 7 6 8 7 6 6 7 7 6 6 5 5 5 4 4 3 3 2 2 1 1 0 -1 -1 -2 -3 -4 -4 -4 -4 -4 -4 -5 -5 -5
2 3 5 9 10 12 11 7 8 8 6 6 5 2 3 7 6 5 5 5 5 4 4 3 2 2 1 1 0 -0 -1 -2 -2 -3 -4 -4 -5 -5 -5 -5 -5 -5 -5 -6
-3 1 4 7 10 12 9 7 8 9 8 6 4 6 8 6 6 5 5 5 4 4 3 2 2 1 0 -0 -1 -1 -2 -2 -3 -4 -4 -5 -5 -5 -5 -5 -5 -6 -6 -7
2 1 6 9 9 8 9 11 12 10 10 8 7 7 6 5 5 5 4 4 3 3 2 1 1 0 -0 -1 -2 -2 -3 -3 -4 -4 -4 -5 -5 -5 -5 -6 -6 -7 -7 -8
5 6 9 10 11 12 13 13 11 11 9 8 7 6 5 5 5 4 4 3 3 2 1 1 0 -1 -1 -2 -2 -3 -3 -4 -4 -5 -5 -5 -5 -6 -6 -6 -7 -7 -8 -8
6 9 8 11 11 11 11 11 11 10 8 7 6 5 4 4 4 4 3 2 2 1 1 0 -0 -1 -2 -2 -3 -3 -4 -5 -5 -5 -5 -6 -6 -6 -7 -7 -7 -8 -8 -9
4 7 9 11 11 11 11 10 9 8 7 7 6 4 4 4 3 3 2 2 1 1 -0 -0 -1 -1 -2 -3 -3 -5 -5 -5 -5 -6 -6 -6 -7 -8 -8 -8 -8 -8 -9 -9
7 11 10 11 12 11 11 9 8 7 5 5 4 4 4 3 3 2 1 1 0 -0 -1 -1 -2 -2 -2 -3 -4 -6 -6 -6 -6 -6 -7 -7 -7 -8 -8 -9 -9 -9 -9 -9
11 11 11 10 10 10 8 7 6 6 5 4 3 3 3 3 2 1 1 -0 -0 -1 -1 -2 -2 -2 -3 -4 -5 -6 -6 -6 -6 -6 -7 -7 -8 -8 -9 -9 -9 -9 -9 -10
11 10 8 9 9 7 6 6 5 4 3 2 3 3 3 2 1 0 -0 -1 -1 -2 -2 -2 -2 -2 -3 -5 -6 -6 -7 -7 -6 -7 -7 -7 -8 -8 -9 -9 -10 -10 -10 -10
10 9 9 9 7 5 5 4 4 2 -0 2 2 2 2 1 0 -0 -1 -2 -2 -2 -2 -2 -2 -3 -5 -6 -6 -6 -6 -7 -7 -7 -7 -7 -8 -8 -9 -9 -10 -10 -10 -10
8 7 7 6 5 4 3 2 1 -0 2 2 2 2 1 0 -0 -1 -2 -2 -2 -2 -2 -2 -3 -5 -7 -7 -6 -6 -6 -6 -7 -8 -8 -8 -9 -9 -9 -9 -10 -10 -10 -10
7 4 4 3 3 2 1 -0 -0 1 2 1 1 1 0 -1 -1 -2 -2 -2 -2 -3 -3 -4 -5 -7 -7 -7 -6 -6 -6 -6 -6 -8 -8 -9 -9 -9 -9 -10 -10 -10 -10 -10
4 4 3 2 1 -1 -0 0 0 1 1 1 0 -0 -1 -1 -2 -2 -2 -2 -3 -3 -4 -6 -6 -7 -7 -7 -7 -7 -7 -6 -7 -7 -8 -9 -9 -10 -10 -10 -10 -10 -10 -10
2 0 -1 -2 -1 -1 1 1 1 1 1 0 -1 -1 -2 -2 -2 -2 -3 -3 -3 -4 -4 -5 -6 -7 -7 -7 -7 -7 -7 -7 -7 -7 -7 -7 -8 -9 -10 -10 -10 -10 -10 -10
-1 -0 -1 -0 0 0 1 1 0 0 -1 -1 -2 -2 -2 -2 -2 -2 -3 -3 -3 -4 -4 -5 -7 -7 -7 -8 -8 -7 -7 -7 -7 -6 -7 -8 -8 -8 -9 -9 -9 -10 -10 -10
-1 -0 -0 -0 0 0 -0 -0 -1 -1 -2 -2 -2 -2 -2 -2 -2 -3 -3 -3 -3 -4 -4 -5 -6 -7 -7 -8 -8 -7 -7 -7 -7 -7 -7 -7 -8 -8 -9 -9 -9 -9 -10 -10
-1 -0 0 -0 -1 -1 -1 -1 -2 -2 -2 -2 -2 -2 -2 -2 -2 -3 -3 -4 -4 -4 -5 -5 -6 -7 -7 -8 -8 -7 -7 -7 -7 -7 -7 -7 -7 -8 -8 -8 -9 -10 -10 -10
-1 -1 -1 -1 -1 -1 -1 -2 -2 -2 -2 -2 -2 -2 -3 -3 -3 -3 -3 -4 -4 -5 -6 -7 -7 -8 -7 -7 -7 -7 -7 -7 -7 -7 -7 -7 -7 -7 -7 -7 -8 -9 -10 -10
-1 -1 -1 -1 -2 -2 -2 -2 -2 -2 -2 -2 -3 -3 -4 -4 -3 -3 -4 -5 -5 -6 -7 -8 -7 -7 -7 -7 -7 -8 -8 -7 -7 -7 -7 -7 -7 -7 -7 -7 -7 -7 -8 -9
-2 -2 -2 -2 -2 -2 -3 -3 -3 -3 -3 -3 -3 -4 -4 -4 -5 -5 -5 -6 -6 -7 -7 -8 -8 -8 -8 -8 -8 -8 -8 -8 -8 -8 -8 -7 -7 -7 -7 -7 -7 -7 -8 -9
-2 -2 -3 -3 -3 -3 -3 -3 -4 -4 -4 -4 -4 -4 -4 -5 -6 -6 -6 -6 -7 -7 -8 -9 -9 -9 -8 -8 -8 -8 -8 -8 -9 -9 -8 -8 -8 -7 -7 -7 -7 -8 -8 -9
-2 -2 -3 -3 -3 -4 -4 -5 -5 -5 -6 -6 -6 -5 -6 -6 -6 -7 -7 -7 -7 -8 -8 -9 -8 -8 -8 -8 -8 -7 -7 -7 -7 -8 -9 -8 -8 -8 -7 -7 -8 -8 -9 -9

GFSNGP_850_temp_024.txt.gz
Temp
9 9 11 12 12 10 10 10 9 10 8 9 8 7 8 8 7 7 7 7 7 7 6 6 6 5 5 5 4 3 3 2 1 1 0 -0 -1 -1 -2 -2 -3 -4 -4 -4
10 8 8 10 10 9 9 9 8 9 8 8 9 9 8 7 7 7 7 7 7 6 6 5 5 5 5 4 3 3 2 1 1 0 -0 -1 -2 -2 -3 -3 -4 -5 -4 -5
7 5 6 7 8 8 9 8 9 8 9 6 6 6 7 7 7 7 7 7 7 6 6 6 5 4 4 3 2 2 1 1 0 -1 -1 -2 -3 -3 -4 -4 -4 -5 -5 -5
3 3 6 10 9 9 10 10 8 9 8 7 8 8 8 8 8 8 7 7 6 6 6 5 4 3 3 2 2 1 0 -0 -1 -2 -2 -2 -3 -4 -4 -5 -5 -5 -5 -5
3 4 7 12 10 9 9 9 7 8 7 6 7 7 7 8 8 8 7 6 6 5 5 4 3 3 2 2 1 0 -0 -1 -2 -2 -2 -3 -4 -4 -5 -5 -5 -5 -5 -5
0 4 5 9 9 10 11 7 9 8 6 6 6 4 6 9 8 7 6 6 5 5 4 3 2 2 2 1 0 -1 -2 -2 -2 -3 -3 -4 -4 -5 -5 -5 -5 -5 -5 -6
-3 1 4 7 10 11 9 8 8 10 10 6 4 8 9 9 8 6 6 5 5 4 3 2 2 1 0 -0 -1 -2 -2 -2 -3 -4 -4 -4 -5 -5 -5 -5 -5 -6 -6 -7
1 -0 7 8 9 8 9 11 12 12 11 10 10 8 8 7 6 5 5 4 4 3 2 2 1 0 -0 -1 -2 -2 -2 -2 -3 -4 -5 -5 -5 -6 -6 -6 -6 -6 -7 -7
5 6 8 10 10 12 11 12 12 12 13 11 9 7 6 6 5 4 4 4 3 2 2 1 0 -0 -1 -1 -2 -2 -2 -3 -4 -5 -5 -5 -6 -6 -6 -7 -7 -7 -8 -8
6 9 7 10 11 11 11 11 11 11 11 10 9 6 5 5 4 2 3 3 2 2 1 0 -0 -1 -1 -2 -2 -2 -3 -4 -5 -5 -5 -6 -6 -6 -7 -7 -8 -8 -8 -9
4 6 9 11 12 13 12 11 11 10 10 9 7 5 5 3 3 3 3 2 2 1 0 -0 -1 -1 -2 -2 -2 -3 -4 -5 -6 -6 -6 -6 -7 -7 -7 -8 -8 -9 -9 -9
5 12 10 11 12 12 11 11 11 9 7 6 6 4 2 0 3 2 2 2 1 0 -1 -1 -1 -1 -2 -2 -3 -4 -5 -6 -6 -6 -6 -6 -7 -7 -8 -8 -9 -10 -9 -10
10 11 10 10 10 10 10 9 8 7 6 5 3 1 1 2 2 2 1 1 -0 -1 -1 -1 -2 -2 -2 -3 -4 -5 -7 -6 -7 -7 -6 -7 -7 -7 -8 -8 -9 -10 -10 -10
10 9 9 10 10 9 8 7 6 5 4 3 1 0 2 2 2 1 0 -0 -1 -1 -2 -2 -2 -2 -3 -4 -5 -6 -6 -6 -6 -6 -7 -7 -8 -7 -8 -8 -9 -10 -10 -10
9 8 8 7 7 6 5 5 3 1 1 0 1 1 1 1 1 0 -0 -1 -1 -2 -2 -2 -2 -2 -4 -5 -6 -6 -6 -6 -6 -6 -7 -7 -8 -8 -8 -9 -9 -10 -10 -10
7 7 6 5 3 2 2 1 0 -0 -2 -1 -1 1 1 0 -0 -1 -1 -1 -2 -2 -2 -3 -3 -4 -5 -7 -7 -7 -6 -6 -6 -7 -7 -7 -8 -8 -9 -9 -9 -10 -10 -10
4 3 3 1 0 -0 -0 -1 -1 -2 -1 -0 0 1 0 -0 -1 -1 -1 -2 -2 -3 -3 -3 -3 -4 -5 -7 -7 -7 -7 -7 -7 -7 -7 -7 -7 -9 -9 -9 -10 -10 -10 -10
3 2 0 0 -1 -1 -1 -2 -1 -0 0 1 1 -0 -1 -1 -1 -1 -2 -2 -3 -3 -3 -3 -4 -4 -6 -7 -8 -8 -8 -7 -7 -7 -7 -7 -8 -8 -9 -9 -10 -10 -10 -10
-1 -1 -1 -2 -2 -2 -2 -1 0 1 -0 -1 -1 -1 -1 -1 -2 -2 -3 -3 -3 -3 -3 -3 -4 -5 -5 -7 -7 -8 -8 -8 -7 -7 -7 -7 -7 -7 -8 -8 -9 -10 -10 -10
-1 -1 -1 -1 -0 0 -0 -0 -0 -1 -1 -1 -1 -2 -2 -2 -2 -2 -3 -3 -3 -3 -4 -4 -4 -5 -5 -6 -7 -8 -8 -8 -7 -7 -7 -7 -7 -7 -8 -8 -9 -9 -9 -10
-1 -1 -0 -0 -0 -0 -1 -1 -1 -1 -2 -2 -2 -2 -2 -2 -2 -2 -3 -3 -2 -3 -4 -4 -5 -5 -6 -7 -7 -8 -8 -8 -8 -7 -7 -7 -7 -7 -8 -8 -8 -8 -8 -9
-1 -1 -1 -1 -1 -1 -2 -2 -2 -2 -2 -2 -2 -2 -2 -3 -3 -3 -3 -3 -3 -4 -5 -5 -5 -6 -7 -7 -8 -8 -8 -8 -8 -8 -7 -7 -7 -7 -7 -7 -7 -7 -7 -8
-1 -1 -1 -2 -2 -2 -2 -2 -2 -2 -3 -3 -3 -3 -3 -3 -4 -4 -4 -4 -5 -5 -6 -6 -7 -7 -8 -8 -8 -8 -8 -8 -8 -9 -8 -8 -8 -8 -7 -7 -7 -7 -7 -7
-2 -2 -2 -2 -3 -3 -3 -3 -3 -3 -3 -3 -4 -4 -4 -5 -4 -5 -5 -6 -6 -6 -6 -7 -7 -8 -8 -9 -9 -8 -9 -9 -9 -9 -9 -9 -9 -8 -8 -8 -8 -7 -7 -7
-2 -3 -3 -3 -3 -3 -3 -3 -3 -4 -4 -4 -5 -5 -5 -6 -6 -6 -6 -6 -6 -6 -7 -7 -7 -8 -9 -9 -10 -10 -9 -8 -8 -8 -9 -9 -9 -9 -9 -8 -8 -8 -8 -8
-3 -3 -3 -3 -4 -4 -5 -5 -5 -6 -7 -7 -7 -8 -7 -7 -6 -7 -7 -7 -7 -7 -7 -7 -8 -8 -9 -9 -9 -8 -8 -8 -8 -8 -8 -8 -9 -9 -9 -8 -8 -8 -8 -8
-3 -3 -3 -4 -4 -5 -7 -7 -7 -8 -8 -9 -9 -8 -9 -9 -9 -8 -8 -7 -7 -7 -8 -8 -8 -8 -9 -9 -9 -9 -9 -9 -8 -8 -8 -8 -9 -9 -9 -8 -8 -8 -8 -9

GFSNGP_850_temp_027.txt.gz
Temp
10 10 11 12 12 11 12 12 13 13 11 13 13 12 10 7 6 7 7 7 7 8 7 7 7 6 5 5 4 3 3 2 2 1 0 -0 -1 -1 -1 -2 -3 -4 -4 -5
10 9 9 11 11 11 10 10 11 10 11 12 10 9 8 8 7 6 7 7 7 7 7 7 6 6 5 4 3 3 2 1 1 0 -0 -1 -1 -2 -3 -3 -4 -4 -5 -5
10 7 8 10 10 11 10 10 12 12 14 9 9 8 9 7 7 6 7 7 7 7 7 6 6 5 4 4 3 2 1 1 0 -1 -1 -2 -2 -3 -3 -4 -4 -5 -5 -5
8 5 11 13 10 10 11 11 10 10 10 9 9 9 9 9 9 8 8 7 7 7 6 6 5 4 4 3 2 2 1 -0 -1 -1 -2 -2 -3 -3 -4 -4 -5 -5 -5 -5
8 9 10 13 10 10 10 13 11 11 10 7 7 7 8 9 9 9 8 8 7 6 6 5 4 4 3 2 2 1 -0 -1 -1 -2 -2 -3 -3 -4 -4 -5 -5 -5 -5 -5
4 9 10 11 10 10 10 11 10 10 8 6 7 9 11 11 9 8 7 7 6 5 5 4 3 3 2 2 1 -0 -1 -1 -2 -3 -3 -4 -4 -4 -4 -5 -5 -5 -5 -6
2 8 8 9 9 10 11 12 9 10 10 6 8 11 11 11 9 7 6 6 5 4 4 3 3 2 2 1 0 -1 -1 -2 -2 -2 -3 -4 -5 -5 -5 -5 -5 -5 -6 -6
2 6 9 8 10 11 11 11 12 11 12 12 13 12 10 9 8 6 5 4 3 3 3 3 2 2 1 0 -1 -1 -2 -2 -2 -3 -3 -4 -5 -5 -5 -6 -6 -6 -7 -7
8 9 9 10 11 12 11 11 12 11 11 10 10 9 7 7 5 4 4 3 2 3 2 2 1 1 -0 -1 -1 -2 -2 -2 -2 -3 -4 -5 -5 -5 -6 -6 -7 -7 -8 -8
7 10 7 9 11 12 12 11 11 11 10 10 9 7 6 5 4 3 2 1 3 2 2 1 0 -0 -1 -1 -2 -2 -2 -2 -4 -5 -5 -6 -6 -6 -6 -6 -7 -8 -8 -8
6 8 9 12 12 12 12 12 11 10 9 9 8 6 5 4 2 0 1 2 2 2 1 0 -0 -1 -1 -2 -2 -2 -2 -4 -5 -6 -6 -6 -6 -6 -7 -7 -8 -8 -8 -9
9 11 10 10 11 10 10 10 10 9 8 7 6 5 3 1 0 0 2 2 2 1 0 -0 -1 -1 -2 -2 -2 -2 -3 -5 -6 -6 -6 -6 -6 -7 -7 -7 -8 -8 -8 -9
9 9 9 9 10 9 9 9 8 6 5 4 3 2 1 -0 0 1 1 2 1 -0 -1 -1 -1 -2 -2 -2 -2 -4 -5 -6 -6 -6 -6 -6 -6 -7 -7 -8 -8 -8 -9 -9
7 7 8 7 6 7 6 5 4 4 3 2 0 -1 -1 -1 0 1 1 0 -0 -1 -1 -2 -2 -2 -2 -3 -4 -5 -6 -6 -6 -6 -6 -6 -7 -7 -7 -8 -8 -8 -9 -10
6 6 5 5 4 4 3 2 2 0 -0 -1 -2 -2 -1 1 1 1 0 -1 -1 -1 -2 -2 -2 -2 -3 -4 -5 -6 -7 -7 -7 -6 -6 -7 -7 -7 -7 -8 -8 -8 -9 -10
3 4 3 3 1 -0 0 -0 -0 -1 -1 -2 -1 -1 -0 0 0 -0 -1 -2 -2 -2 -2 -2 -2 -3 -3 -4 -5 -6 -7 -7 -8 -8 -7 -7 -7 -7 -7 -8 -8 -9 -9 -10
3 -0 -0 -1 -1 -1 -2 -2 -3 -3 -2 -1 -1 -1 -0 -1 -1 -2 -2 -2 -2 -2 -2 -2 -3 -3 -4 -4 -5 -6 -7 -8 -8 -7 -7 -7 -8 -7 -7 -8 -9 -9 -9 -9
1 -1 -1 -2 -2 -2 -2 -2 -2 -1 -1 -1 -1 -1 -1 -2 -2 -2 -2 -2 -2 -2 -2 -3 -4 -4 -4 -5 -5 -6 -7 -7 -8 -8 -8 -8 -8 -7 -7 -8 -8 -8 -8 -9
-0 -1 -1 -1 -0 -0 -1 -1 -1 -1 -1 -1 -1 -2 -2 -2 -2 -2 -2 -2 -2 -2 -2 -3 -4 -4 -5 -5 -5 -6 -7 -7 -7 -8 -8 -8 -7 -7 -7 -7 -7 -8 -8 -9
-0 -0 -1 -1 -1 -1 -1 -1 -2 -2 -2 -2 -2 -2 -2 -2 -2 -2 -3 -3 -3 -3 -3 -4 -4 -5 -5 -5 -6 -6 -7 -7 -8 -8 -8 -8 -8 -7 -7 -7 -7 -8 -8 -8
-1 -1 -1 -1 -1 -2 -2 -2 -2 -2 -2 -2 -3 -3 -3 -3 -3 -3 -4 -4 -4 -4 -4 -4 -5 -5 -6 -6 -7 -7 -8 -8 -8 -8 -8 -8 -8 -8 -7 -7 -7 -7 -8 -8
-1 -2 -2 -2 -2 -2 -3 -3 -3 -3 -3 -3 -3 -3 -4 -4 -4 -4 -5 -5 -5 -5 -5 -6 -6 -6 -6 -7 -7 -8 -8 -9 -8 -8 -8 -8 -9 -8 -8 -8 -8 -8 -7 -7
-2 -2 -2 -3 -3 -3 -3 -3 -3 -3 -3 -4 -4 -4 -5 -5 -6 -6 -6 -6 -6 -6 -6 -7 -7 -7 -7 -7 -8 -8 -10 -9 -9 -9 -9 -9 -9 -9 -9 -9 -8 -8 -8 -8
-3 -3 -3 -3 -3 -3 -3 -3 -3 -4 -4 -4 -5 -6 -6 -6 -5 -7 -7 -7 -7 -6 -7 -7 -7 -7 -7 -8 -8 -9 -9 -9 -9 -9 -9 -10 -9 -9 -9 -9 -9 -9 -9 -8
-3 -3 -3 -3 -3 -3 -4 -4 -5 -5 -6 -6 -7 -7 -8 -9 -9 -7 -9 -9 -8 -8 -7 -7 -7 -8 -8 -8 -8 -9 -9 -9 -9 -9 -9 -9 -9 -9 -9 -9 -9 -9 -9 -8
-3 -3 -4 -4 -5 -6 -7 -7 -7 -8 -8 -8 -8 -8 -9 -9 -10 -11 -10 -10 -9 -8 -8 -8 -8 -8 -8 -9 -9 -9 -10 -10 -10 -10 -10 -10 -10 -10 -10 -10 -10 -10 -9 -9
-4 -5 -5 -6 -7 -7 -8 -8 -9 -9 -9 -10 -10 -10 -10 -11 -11 -11 -11 -11 -10 -10 -9 -9 -9 -9 -10 -10 -10 -11 -11 -11 -11 -11 -11 -11 -11 -11 -10 -10 -10 -9 -9 -9

GFSNGP_850_temp_030.txt.gz
Temp
15 15 16 17 17 17 17 18 16 19 18 20 19 19 18 16 14 13 11 10 9 9 8 7 7 6 6 6 4 4 4 3 2 1 0 -0 -1 -2 -2 -3 -3 -3 -3 -4
14 14 14 15 16 17 17 18 17 18 18 20 18 16 15 14 13 12 11 10 9 9 8 7 7 6 6 4 4 4 3 2 2 1 -0 -1 -2 -2 -3 -3 -3 -3 -4 -5
15 12 13 12 15 17 17 17 17 17 19 18 16 15 15 14 12 12 11 10 9 8 8 7 6 6 5 4 4 4 2 1 1 -0 -1 -1 -2 -2 -3 -3 -3 -4 -4 -5
12 9 12 18 15 16 17 18 18 17 18 17 16 14 13 13 13 12 11 9 9 8 7 6 5 5 4 4 3 3 2 1 -0 -1 -1 -2 -2 -3 -3 -3 -3 -4 -4 -5
11 14 16 18 15 14 14 17 18 17 18 15 12 11 14 12 11 11 10 9 8 7 6 5 5 4 4 3 3 2 1 -0 -1 -1 -2 -2 -3 -3 -4 -4 -4 -4 -4 -5
9 12 13 16 14 12 14 15 15 15 15 13 12 14 17 13 11 9 9 8 7 5 6 5 3 3 2 2 1 1 -0 -1 -1 -2 -3 -3 -3 -4 -4 -4 -4 -5 -5 -6
10 11 14 15 13 12 14 15 14 13 14 12 13 15 12 12 10 9 8 6 5 6 4 3 3 1 2 1 0 -0 -0 -1 -2 -3 -3 -3 -4 -4 -4 -4 -5 -6 -5 -6
9 10 11 12 12 14 15 14 12 13 13 12 12 10 8 8 8 7 6 4 4 3 3 1 1 2 1 0 -0 -0 -1 -2 -3 -3 -4 -4 -4 -4 -4 -5 -5 -6 -7 -6
14 15 13 12 14 13 11 11 12 11 12 10 10 9 8 7 6 5 4 2 2 1 2 1 2 2 0 -1 -0 -1 -1 -2 -3 -4 -5 -5 -4 -4 -5 -5 -5 -6 -6 -7
12 15 14 13 12 12 11 11 11 11 10 10 10 9 7 5 4 3 2 1 1 0 0 0 1 1 0 -0 -1 -1 -2 -3 -4 -4 -4 -5 -5 -6 -6 -6 -6 -6 -6 -7
12 13 13 13 11 11 10 10 10 10 9 8 8 7 6 4 2 1 1 -0 0 1 1 1 1 0 -0 -1 -1 -2 -2 -3 -5 -5 -5 -5 -5 -6 -6 -6 -6 -7 -7 -7
12 11 11 12 10 9 8 9 8 7 7 5 6 5 3 1 0 -0 -1 -1 0 0 1 1 0 -1 -1 -2 -2 -2 -3 -4 -5 -6 -5 -6 -6 -6 -6 -6 -7 -7 -7 -8
9 8 8 8 7 6 6 5 5 4 4 3 2 0 -0 -1 -1 -2 -2 -2 -0 0 0 -1 -1 -1 -2 -2 -2 -2 -3 -4 -5 -6 -6 -6 -6 -7 -7 -6 -7 -7 -8 -8
5 6 8 4 4 3 2 2 1 -0 -1 -1 -1 -1 -2 -2 -2 -3 -2 -0 -0 -1 -1 -1 -2 -2 -2 -2 -2 -3 -3 -4 -6 -6 -7 -7 -6 -6 -7 -7 -7 -7 -8 -8
3 4 3 2 2 0 -0 -1 -1 -1 -2 -2 -3 -3 -3 -2 -2 -2 -0 -0 -1 -1 -1 -2 -2 -2 -3 -3 -3 -3 -3 -5 -6 -7 -7 -7 -7 -7 -7 -7 -7 -8 -8 -8
2 1 0 -0 -1 -2 -1 -2 -2 -2 -2 -2 -1 -1 -1 -1 -1 -1 -1 -1 -2 -2 -2 -2 -2 -3 -3 -3 -3 -4 -5 -6 -7 -7 -7 -7 -7 -7 -7 -8 -8 -8 -8 -8
-0 -1 -1 -2 -2 -1 -1 -1 -1 -1 -1 -1 -1 -1 -1 -1 -1 -1 -2 -2 -2 -2 -2 -2 -2 -3 -3 -3 -4 -4 -6 -6 -6 -7 -7 -7 -8 -7 -8 -8 -7 -8 -8 -8
1 -0 -0 0 0 -0 -1 -2 -2 -2 -2 -1 -1 -1 -2 -2 -2 -2 -2 -2 -2 -2 -2 -2 -3 -3 -3 -4 -4 -5 -6 -6 -6 -7 -7 -7 -8 -8 -7 -8 -8 -8 -8 -8
-1 -1 -2 -2 -2 -2 -2 -1 -2 -2 -2 -2 -2 -2 -2 -2 -2 -2 -2 -2 -2 -2 -3 -3 -3 -3 -3 -4 -4 -5 -5 -6 -7 -7 -7 -7 -8 -8 -8 -8 -8 -8 -8 -8
-2 -1 -1 -1 -2 -2 -2 -2 -2 -3 -3 -3 -2 -2 -2 -2 -3 -3 -3 -3 -3 -4 -4 -4 -4 -4 -5 -5 -5 -6 -6 -7 -7 -8 -8 -7 -7 -7 -7 -8 -8 -8 -8 -8
-2 -2 -2 -2 -2 -2 -3 -3 -3 -3 -3 -3 -3 -3 -3 -3 -4 -4 -4 -5 -6 -6 -6 -6 -6 -6 -7 -7 -6 -6 -7 -7 -8 -8 -8 -8 -7 -8 -8 -8 -8 -8 -8 -8
-2 -2 -2 -2 -2 -3 -3 -3 -3 -3 -3 -3 -3 -4 -4 -5 -5 -5 -7 -7 -7 -8 -8 -7 -7 -7 -7 -7 -7 -7 -8 -9 -9 -8 -8 -8 -8 -8 -8 -8 -8 -8 -8 -8
-2 -2 -3 -3 -3 -3 -3 -3 -3 -3 -4 -4 -5 -5 -6 -7 -9 -9 -8 -8 -9 -9 -9 -9 -8 -8 -7 -7 -7 -7 -8 -9 -9 -9 -9 -9 -9 -9 -9 -8 -8 -8 -8 -8
-3 -3 -3 -3 -4 -4 -3 -3 -4 -5 -6 -6 -7 -7 -8 -8 -8 -10 -10 -10 -10 -10 -9 -9 -9 -8 -8 -8 -8 -8 -8 -9 -9 -9 -10 -10 -10 -9 -9 -10 -10 -9 -8 -8
-3 -3 -4 -4 -4 -4 -5 -5 -6 -7 -7 -8 -8 -9 -10 -11 -12 -11 -11 -11 -11 -11 -10 -10 -9 -8 -8 -9 -9 -9 -9 -10 -10 -10 -10 -10 -10 -10 -10 -10 -10 -10 -9 -9
-4 -5 -5 -4 -5 -6 -7 -7 -8 -8 -9 -10 -11 -11 -11 -12 -13 -12 -13 -13 -13 -13 -12 -12 -11 -11 -11 -11 -11 -11 -11 -11 -11 -11 -11 -11 -11 -11 -11 -11 -10 -10 -10 -10
-5 -5 -6 -7 -7 -7 -8 -9 -9 -10 -10 -11 -11 -12 -14 -14 -14 -14 -13 -13 -14 -14 -14 -14 -13 -13 -13 -13 -13 -13 -13 -13 -13 -13 -13 -13 -12 -12 -12 -12 -11 -11 -11 -11

GFSNGP_850_temp_033.txt.gz
Temp
21 20 20 20 21 20 20 20 19 20 22 23 23 22 21 20 19 19 18 16 15 14 13 11 10 9 8 7 6 5 4 5 5 4 3 2 2 1 0 -1 -1 -1 -1 -2
17 19 18 18 20 20 21 21 21 21 21 23 21 21 20 19 18 18 17 15 14 13 12 12 10 9 8 6 4 4 4 4 4 3 2 2 1 0 -0 -1 -1 -1 -1 -2
16 16 16 13 17 19 20 21 20 19 21 22 20 20 19 18 17 17 16 15 14 13 12 11 10 9 7 5 4 4 4 4 3 2 2 1 0 -0 -0 -1 -1 -2 -2 -3
14 10 11 20 19 19 19 20 21 21 21 21 20 18 17 17 17 16 15 15 14 13 11 10 9 7 6 5 4 3 4 3 3 1 1 0 0 -0 -1 -1 -2 -2 -2 -3
12 15 18 19 19 18 17 19 20 19 19 19 18 15 16 16 15 15 15 14 13 12 11 10 8 6 5 4 4 4 3 3 2 1 1 0 -0 -1 -1 -2 -2 -2 -2 -3
13 12 11 17 17 16 17 16 18 17 18 17 17 16 18 15 14 13 13 12 12 11 10 8 6 5 4 4 3 3 2 1 1 0 -0 -1 -1 -1 -2 -2 -2 -3 -3 -3
13 12 15 18 16 15 15 15 16 16 16 16 16 15 13 13 13 13 12 12 11 9 8 6 5 3 2 2 1 2 1 0 -0 -1 -1 -1 -2 -2 -3 -3 -3 -4 -4 -5
13 10 11 16 16 15 15 16 15 15 15 14 14 14 12 12 12 12 11 9 7 6 6 3 1 0 0 2 2 1 1 -1 -1 -1 -1 -2 -3 -3 -3 -3 -3 -4 -5 -5
16 16 16 16 16 15 14 14 14 14 14 13 13 13 13 11 10 9 9 7 5 4 1 0 -1 -0 1 1 1 0 -1 -2 -2 -2 -2 -3 -3 -3 -3 -3 -4 -5 -5 -5
15 17 17 16 15 14 14 13 13 13 12 12 12 12 11 9 8 7 6 4 1 -0 -1 -2 -0 -0 -0 -0 -0 -0 -2 -2 -2 -3 -3 -3 -3 -3 -3 -5 -5 -5 -6 -6
15 16 15 15 13 12 11 11 11 11 11 9 9 10 9 8 6 4 0 -1 -2 -2 -2 -2 -1 -1 -1 -1 -0 -2 -3 -3 -3 -4 -4 -4 -4 -3 -4 -5 -6 -6 -6 -6
13 13 12 13 11 9 9 9 8 8 8 7 8 7 5 2 -1 -2 -2 -3 -3 -3 -3 -2 -1 0 -0 -2 -2 -1 -2 -2 -3 -4 -5 -4 -4 -5 -5 -5 -6 -6 -6 -7
11 9 10 8 7 6 5 5 5 4 3 2 0 -1 -2 -2 -2 -2 -2 -2 -3 -2 -1 0 0 -2 -1 -1 -1 -2 -2 -3 -3 -5 -4 -5 -5 -5 -6 -6 -6 -6 -6 -7
7 8 8 6 6 4 1 -0 1 0 -0 -1 -2 -1 -1 -1 -1 -1 -1 -1 -0 -0 -1 -2 -1 -1 -2 -3 -2 -2 -3 -3 -5 -4 -5 -6 -6 -6 -6 -6 -6 -6 -6 -7
6 6 5 4 2 1 -0 -1 -1 -1 -0 0 0 0 -0 -1 -1 -1 -1 -1 -1 -1 -1 -2 -2 -2 -2 -3 -3 -3 -4 -5 -5 -5 -5 -6 -6 -6 -6 -6 -6 -6 -6 -7
3 2 2 1 -1 -1 -1 -0 0 -0 -1 -1 -1 -1 -1 -1 -1 -2 -2 -2 -2 -2 -2 -2 -2 -2 -2 -3 -4 -4 -3 -4 -4 -5 -6 -6 -6 -6 -6 -7 -7 -7 -7 -7
1 -1 -1 -1 -1 -0 0 0 -0 0 -0 -1 -2 -1 -1 -1 -1 -2 -2 -2 -2 -2 -2 -2 -2 -2 -3 -3 -4 -4 -4 -4 -4 -5 -5 -6 -6 -6 -7 -7 -7 -7 -7 -7
1 0 1 0 -1 -1 -0 -1 -2 -2 -2 -2 -2 -2 -2 -2 -2 -2 -2 -2 -2 -2 -2 -3 -4 -4 -4 -5 -4 -4 -5 -5 -5 -5 -6 -6 -6 -6 -7 -7 -7 -7 -7 -7
1 0 0 0 -0 -1 -1 -2 -2 -2 -2 -2 -2 -2 -2 -2 -3 -3 -3 -3 -3 -4 -4 -5 -5 -6 -6 -6 -6 -6 -6 -6 -6 -6 -6 -7 -7 -7 -7 -7 -7 -7 -7 -7
-0 -1 -1 -2 -2 -2 -2 -2 -3 -2 -2 -2 -2 -2 -2 -2 -3 -3 -4 -4 -5 -6 -6 -6 -6 -7 -7 -7 -6 -6 -6 -7 -7 -7 -7 -8 -7 -7 -7 -7 -7 -7 -7 -7
-1 -2 -2 -2 -2 -2 -2 -3 -3 -3 -3 -3 -3 -3 -4 -4 -5 -5 -6 -7 -7 -7 -8 -8 -9 -9 -8 -8 -7 -7 -7 -7 -7 -7 -7 -8 -7 -7 -7 -7 -7 -7 -8 -8
-2 -2 -2 -2 -3 -3 -3 -3 -3 -3 -3 -3 -4 -4 -5 -6 -6 -8 -8 -8 -8 -8 -9 -9 -9 -9 -9 -9 -8 -8 -8 -8 -7 -7 -8 -8 -8 -8 -8 -8 -8 -8 -8 -8
-3 -2 -2 -3 -3 -4 -3 -3 -3 -4 -4 -5 -6 -6 -7 -8 -9 -9 -9 -10 -11 -11 -11 -10 -10 -10 -10 -9 -8 -8 -8 -8 -7 -8 -9 -9 -10 -10 -10 -10 -10 -9 -9 -9
-4 -4 -4 -3 -4 -4 -5 -5 -5 -7 -7 -8 -9 -9 -10 -10 -11 -11 -12 -12 -12 -13 -12 -12 -12 -11 -11 -11 -10 -10 -9 -10 -10 -10 -10 -10 -11 -11 -11 -11 -10 -10 -10 -10
-3 -4 -4 -5 -6 -6 -7 -7 -7 -8 -9 -10 -10 -11 -12 -12 -13 -13 -14 -14 -14 -14 -14 -14 -13 -12 -13 -13 -13 -13 -12 -12 -12 -12 -12 -12 -12 -12 -12 -11 -11 -11 -11 -11
-6 -6 -7 -5 -6 -8 -8 -7 -9 -10 -11 -11 -12 -13 -13 -13 -14 -15 -15 -15 -15 -15 -16 -15 -15 -14 -14 -15 -15 -14 -14 -15 -14 -14 -14 -14 -13 -13 -13 -12 -12 -12 -12 -12
-5 -6 -8 -8 -9 -8 -8 -9 -10 -11 -13 -13 -14 -14 -14 -14 -15 -15 -16 -16 -16 -17 -17 -17 -17 -17 -16 -16 -16 -16 -16 -16 -16 -15 -15 -15 -15 -15 -14 -14 -13 -13 -13 -13

GFSNGP_850_temp_036.txt.gz
Temp
21 21 21 20 21 21 21 20 18 19 21 22 23 22 22 21 21 20 20 19 18 18 16 14 13 12 11 10 8 8 6 6 5 4 4 4 3 2 2 1 0 -0 -1 -1
18 20 20 19 20 21 21 21 21 21 21 23 22 21 20 20 20 19 19 19 18 17 16 14 13 12 11 10 8 7 6 4 3 4 4 3 2 2 1 0 -0 -1 -1 -1
15 17 16 13 17 19 20 21 21 19 21 22 21 21 20 19 19 18 17 17 17 16 15 14 13 12 10 9 8 6 5 4 4 3 2 2 1 1 0 -0 -0 -1 -1 -2
14 11 13 19 21 20 19 20 21 21 20 20 19 18 18 18 18 17 17 16 16 15 15 14 13 11 10 8 6 5 4 3 2 2 2 1 1 -0 -0 -0 -1 -1 -2 -2
11 14 17 18 20 19 18 18 19 18 19 19 18 17 17 18 16 15 15 15 15 14 14 13 11 10 8 6 5 4 2 1 2 2 1 1 0 -0 -0 -1 -1 -2 -2 -2
12 13 12 17 18 18 18 16 17 17 17 17 17 14 15 15 15 14 14 14 13 13 12 11 9 7 6 5 4 3 1 1 0 0 1 0 -1 -1 -1 -1 -2 -2 -2 -3
12 11 14 18 17 16 15 14 16 16 16 15 15 15 13 13 13 13 13 12 12 11 10 8 7 5 4 2 2 -0 -1 -0 -0 -0 -1 -1 -1 -1 -2 -2 -2 -3 -3 -3
12 9 10 17 17 15 15 15 15 15 15 14 14 14 14 14 12 12 11 9 8 7 6 3 2 1 -0 -1 -1 -1 -1 -0 -0 -0 -1 -2 -2 -2 -2 -3 -3 -3 -3 -4
14 14 16 17 16 16 15 14 14 14 13 13 13 13 13 12 11 10 8 6 5 3 1 1 1 1 -0 -2 -2 -1 -1 0 -0 -2 -3 -3 -3 -3 -3 -3 -3 -3 -4 -5
15 18 18 17 16 14 13 12 12 12 12 11 10 10 11 9 8 6 3 1 -0 0 -0 -1 -2 -2 -2 -2 -2 -1 1 -0 -3 -3 -3 -3 -3 -3 -3 -3 -3 -4 -4 -5
16 16 16 14 12 11 11 10 10 10 8 8 9 8 7 4 1 -0 -1 -0 -1 -1 -1 -1 -0 -1 -2 -2 -1 -2 -3 -2 -2 -2 -2 -3 -3 -4 -4 -4 -4 -5 -5 -5
13 13 13 10 9 9 9 8 7 7 4 4 4 2 3 1 -0 -0 -0 -0 0 -0 -1 -2 -2 -2 -2 -1 -2 -2 -2 -2 -2 -2 -3 -3 -4 -4 -4 -5 -5 -5 -6 -6
12 10 10 8 6 4 4 3 3 2 2 3 2 2 2 1 1 1 0 -1 -2 -2 -1 -2 -1 -2 -2 -2 -2 -2 -2 -2 -2 -3 -3 -4 -5 -5 -6 -5 -5 -6 -6 -6
8 9 8 8 4 2 1 1 2 2 1 1 0 -0 -0 -1 -1 -1 -1 -1 -1 -1 -1 -1 -1 -1 -2 -2 -2 -3 -3 -3 -3 -3 -4 -4 -5 -5 -6 -6 -6 -6 -6 -6
7 6 6 4 2 0 -0 -0 -0 -1 -0 -1 -1 -1 -1 -1 -0 -1 -1 -1 -2 -2 -2 -2 -2 -1 -2 -2 -2 -3 -3 -4 -4 -4 -4 -5 -5 -5 -5 -6 -6 -6 -6 -6
4 4 3 2 0 0 0 -0 -1 -0 -0 -0 -1 -1 -1 -1 -1 -2 -2 -2 -2 -2 -2 -2 -2 -2 -2 -3 -3 -4 -4 -4 -4 -4 -4 -4 -5 -5 -5 -6 -6 -6 -6 -6
1 0 0 0 1 1 1 0 0 -1 -1 -1 -1 -1 -1 -2 -2 -2 -2 -2 -2 -2 -2 -3 -4 -4 -5 -5 -5 -5 -5 -5 -5 -5 -5 -5 -5 -6 -6 -6 -7 -7 -6 -7
3 1 1 1 1 0 -0 -1 -1 -1 -1 -2 -2 -2 -2 -2 -2 -3 -3 -2 -2 -2 -4 -5 -5 -5 -5 -6 -6 -6 -6 -6 -6 -6 -6 -6 -6 -6 -6 -6 -7 -7 -7 -7
1 1 0 0 -0 -0 -1 -2 -2 -2 -2 -2 -2 -2 -3 -3 -3 -3 -3 -4 -4 -6 -7 -7 -7 -7 -7 -8 -8 -8 -8 -7 -7 -6 -6 -6 -6 -7 -7 -7 -7 -7 -7 -7
1 -0 -1 -1 -2 -1 -2 -3 -3 -3 -2 -3 -3 -2 -3 -3 -4 -4 -5 -7 -7 -8 -8 -8 -8 -8 -9 -9 -9 -9 -9 -8 -8 -7 -7 -7 -7 -7 -7 -7 -8 -7 -7 -7
-1 -2 -1 -1 -2 -2 -2 -3 -3 -3 -3 -3 -3 -3 -4 -5 -6 -7 -8 -8 -9 -9 -9 -8 -10 -10 -10 -10 -10 -10 -10 -9 -8 -8 -8 -8 -7 -7 -8 -8 -8 -8 -8 -8
-2 -2 -2 -2 -2 -3 -3 -3 -3 -3 -4 -4 -4 -5 -5 -6 -7 -8 -9 -10 -10 -10 -10 -11 -12 -11 -11 -11 -11 -11 -11 -10 -8 -8 -8 -8 -8 -8 -9 -10 -10 -10 -9 -9
-2 -2 -2 -4 -4 -4 -4 -4 -4 -4 -5 -5 -6 -7 -7 -8 -10 -10 -11 -12 -12 -12 -12 -14 -13 -12 -12 -12 -13 -13 -13 -12 -12 -11 -11 -11 -11 -11 -11 -12 -11 -11 -11 -11
-3 -4 -5 -4 -4 -5 -6 -5 -6 -7 -7 -8 -9 -9 -10 -10 -11 -12 -12 -13 -14 -14 -15 -15 -15 -13 -13 -13 -14 -14 -14 -15 -14 -14 -14 -14 -14 -13 -13 -13 -13 -12 -12 -12
-4 -4 -5 -5 -5 -6 -7 -7 -8 -8 -8 -9 -10 -11 -11 -12 -13 -13 -14 -14 -15 -15 -16 -16 -17 -16 -15 -15 -16 -16 -16 -16 -16 -16 -15 -15 -15 -15 -15 -15 -14 -14 -13 -13
-5 -5 -6 -6 -6 -7 -7 -7 -7 -9 -9 -11 -11 -11 -13 -13 -14 -14 -15 -15 -16 -16 -17 -17 -17 -18 -18 -18 -18 -18 -18 -17 -17 -17 -17 -17 -17 -17 -16 -16 -16 -15 -15 -15
-6 -7 -7 -8 -8 -8 -8 -8 -9 -9 -11 -12 -13 -13 -13 -14 -14 -15 -16 -16 -17 -17 -17 -18 -18 -19 -19 -20 -20 -20 -20 -19 -19 -19 -18 -18 -18 -18 -18 -18 -17 -17 -17 -17

GFSNGP_850_temp_042.txt.gz
Temp
15 16 17 18 17 16 16 15 13 14 13 16 17 16 17 18 18 18 16 16 16 16 16 15 14 14 13 13 12 11 10 9 8 7 5 4 4 3 2 1 1 1 0 0
16 14 15 16 16 15 16 16 15 16 15 12 15 16 16 17 17 16 16 16 17 16 16 15 14 14 12 12 11 9 8 7 6 5 5 4 3 1 -0 -1 -1 -1 1 -0
12 11 12 9 13 15 16 16 16 14 14 13 12 13 14 15 15 14 15 15 15 15 15 15 15 13 12 11 10 8 7 6 5 4 4 2 -0 -1 -2 -1 -1 -1 -0 -1
7 8 9 13 14 15 12 12 12 12 12 11 11 12 13 13 14 13 14 14 14 14 14 13 13 12 11 9 8 6 6 5 4 2 1 -1 -2 -1 -0 -1 -1 0 -1 -1
7 7 11 14 15 14 13 13 13 11 11 12 12 13 12 12 13 13 13 13 13 13 13 13 11 10 9 7 6 5 4 3 1 0 -1 -0 0 0 -0 -1 -1 -1 -1 -1
5 7 8 11 14 15 13 9 12 12 11 12 12 8 8 11 12 12 12 12 12 12 12 12 9 8 7 5 4 3 1 0 -1 -0 0 0 -1 -1 -1 -1 -1 -2 -2 -2
2 5 7 10 14 15 11 10 12 13 12 12 9 10 9 10 10 10 10 9 9 8 8 7 6 5 5 2 2 0 -0 0 0 -0 -1 -1 -1 -1 -1 -2 -2 -2 -2 -3
5 4 9 13 14 12 10 12 12 13 12 10 10 9 9 8 8 7 7 6 6 6 4 3 3 4 3 2 1 0 0 0 -1 -1 -1 -1 -1 -1 -1 -2 -2 -3 -3 -3
8 7 10 13 13 13 13 12 11 12 11 11 10 8 7 6 5 5 5 4 4 4 3 2 2 2 1 1 0 -0 -1 -1 -1 -1 -0 -1 -1 -1 -2 -2 -2 -2 -3 -4
10 9 9 10 11 11 12 12 10 11 10 11 9 6 5 4 3 3 2 2 2 2 1 0 -0 -1 -1 -1 -1 -1 -1 -0 -1 -1 -1 -1 -1 -2 -2 -2 -3 -3 -3 -4
7 8 9 8 8 9 9 9 9 9 9 9 8 4 3 2 1 1 1 0 -0 -0 -1 -1 -1 -1 -1 -1 -1 -1 -1 -1 -1 -2 -2 -2 -2 -3 -3 -3 -3 -3 -4 -4
6 9 8 6 6 7 8 7 7 8 6 5 5 3 2 1 0 -0 -1 -1 -1 -1 -1 -1 -1 -1 -1 -2 -2 -2 -2 -2 -2 -3 -3 -3 -4 -4 -4 -4 -4 -4 -4 -5
8 9 9 6 6 7 8 6 5 6 5 4 2 2 1 -1 -1 -1 -1 -1 -1 -1 -1 -2 -2 -2 -2 -2 -2 -2 -3 -3 -4 -4 -4 -5 -5 -5 -5 -4 -4 -4 -5 -5
10 8 4 5 3 4 5 4 4 2 1 1 -0 -0 -1 -1 -2 -1 -2 -2 -2 -2 -2 -2 -2 -2 -2 -3 -3 -4 -5 -5 -5 -5 -6 -6 -6 -6 -6 -6 -6 -5 -5 -5
7 8 7 4 3 2 3 2 1 -0 -1 -1 -1 -1 -1 -1 -2 -2 -2 -2 -2 -2 -2 -2 -2 -3 -4 -5 -5 -5 -6 -6 -6 -6 -7 -7 -8 -8 -8 -7 -6 -6 -6 -6
5 6 4 3 1 1 1 0 -0 -1 -1 -1 -1 -1 -2 -2 -2 -2 -2 -2 -2 -2 -3 -4 -4 -5 -6 -6 -6 -6 -7 -7 -8 -9 -9 -9 -9 -9 -9 -8 -8 -7 -7 -6
2 0 1 0 0 -0 0 -0 -0 -1 -1 -1 -1 -2 -2 -2 -2 -2 -2 -3 -3 -4 -5 -6 -6 -6 -7 -7 -7 -8 -8 -9 -9 -10 -10 -11 -10 -10 -10 -10 -9 -8 -7 -7
5 3 3 2 -0 -0 -1 -1 -1 -1 -1 -1 -2 -2 -2 -2 -2 -3 -3 -4 -5 -5 -6 -6 -7 -7 -8 -9 -9 -10 -10 -11 -11 -12 -12 -12 -11 -11 -11 -10 -9 -8 -7 -7
3 2 1 0 -0 -0 -1 -1 -1 -1 -2 -2 -2 -2 -2 -3 -3 -4 -4 -5 -5 -6 -7 -8 -8 -9 -10 -10 -11 -11 -11 -12 -12 -12 -13 -12 -12 -12 -11 -11 -10 -9 -9 -8
0 0 0 -0 -0 0 -1 -2 -2 -2 -3 -3 -3 -3 -3 -4 -4 -5 -6 -6 -7 -9 -10 -10 -10 -10 -11 -12 -12 -12 -13 -12 -13 -13 -13 -13 -13 -14 -13 -12 -12 -12 -11 -11
0 -0 -0 -1 -1 -2 -2 -2 -2 -3 -3 -4 -4 -4 -4 -5 -5 -6 -7 -8 -9 -10 -11 -12 -12 -12 -12 -12 -13 -13 -13 -13 -14 -14 -14 -15 -15 -15 -15 -14 -14 -14 -14 -13
-1 -1 -2 -3 -3 -3 -3 -3 -3 -3 -4 -4 -5 -5 -6 -6 -7 -8 -9 -10 -11 -12 -13 -13 -13 -13 -13 -13 -13 -14 -14 -15 -15 -15 -15 -16 -16 -16 -16 -16 -16 -16 -15 -15
-2 -3 -3 -2 -3 -3 -4 -4 -4 -5 -5 -5 -6 -6 -7 -7 -8 -9 -11 -12 -13 -13 -14 -14 -14 -14 -14 -14 -14 -14 -15 -16 -16 -16 -17 -17 -17 -17 -17 -17 -17 -17 -17 -17
-4 -4 -3 -4 -4 -4 -4 -6 -6 -6 -6 -6 -7 -8 -9 -9 -11 -11 -12 -13 -14 -14 -14 -14 -15 -14 -14 -15 -15 -16 -16 -17 -17 -17 -18 -18 -18 -18 -18 -18 -18 -18 -18 -18
-4 -4 -4 -4 -5 -6 -6 -6 -7 -8 -8 -8 -9 -10 -10 -11 -11 -12 -14 -14 -14 -15 -15 -15 -15 -15 -16 -16 -17 -17 -17 -18 -18 -18 -18 -18 -18 -18 -19 -19 -19 -19 -19 -18
-4 -4 -5 -6 -6 -7 -7 -7 -8 -8 -9 -9 -10 -11 -11 -12 -13 -14 -14 -15 -15 -15 -15 -16 -16 -16 -17 -18 -18 -18 -18 -18 -18 -19 -19 -19 -19 -19 -19 -19 -19 -19 -19 -19
-5 -6 -6 -7 -8 -8 -8 -8 -9 -9 -9 -10 -11 -12 -12 -13 -14 -15 -15 -16 -16 -16 -16 -17 -17 -18 -18 -18 -18 -18 -18 -19 -19 -19 -19 -19 -19 -19 -19 -20 -20 -20 -20 -19

GFSNGP_850_temp_045.txt.gz
Temp
14 15 16 16 16 14 14 13 12 13 12 14 15 15 14 17 17 18 17 16 16 16 16 16 15 16 15 13 12 11 10 10 9 7 6 5 4 3 3 2 1 0 -1 -1
14 13 14 16 15 14 14 15 13 13 14 13 13 13 13 14 15 15 15 16 16 16 16 15 14 12 11 11 10 10 10 9 7 6 5 4 3 3 1 0 -1 -0 -0 -1
12 10 12 9 12 13 14 14 14 13 13 13 11 10 11 13 14 14 15 15 15 15 15 14 13 12 12 11 11 9 8 6 5 4 3 2 2 0 -1 0 -0 -0 -1 -1
7 7 8 13 13 13 12 12 11 11 11 10 9 10 11 12 13 13 13 14 14 14 14 13 12 11 11 10 9 7 6 5 4 3 2 0 -0 0 0 -1 -1 -2 -1 -1
8 7 10 13 12 12 12 13 12 10 9 10 10 12 10 11 12 13 13 13 13 13 13 13 12 10 9 8 7 5 4 2 1 0 -0 1 1 0 -1 -1 -1 -1 -1 -1
5 8 8 11 12 14 12 9 12 10 9 10 10 8 7 9 10 11 12 11 11 11 11 10 9 8 7 5 4 3 1 -0 -0 -0 0 0 -0 -0 -1 -1 -1 -1 -1 -1
2 5 7 9 13 14 11 10 12 12 12 11 8 9 10 9 9 9 9 9 8 7 7 6 5 4 5 3 2 1 1 1 0 -0 -0 -0 -1 -1 -1 -1 -1 -2 -2 -1
3 4 9 11 12 11 10 11 13 12 12 11 11 8 8 7 7 6 6 5 5 5 4 3 3 3 2 2 1 1 0 -0 -0 -1 -1 -1 -1 -1 -1 -2 -2 -2 -2 -1
8 7 9 11 12 14 14 13 12 12 12 12 9 7 6 5 4 4 3 4 3 3 3 2 2 1 1 0 -0 -1 -1 -1 -1 -1 -1 -1 -1 -2 -2 -2 -2 -2 -2 -3
9 9 8 8 11 12 13 13 12 12 11 10 9 6 4 3 3 3 2 2 2 2 1 0 -0 -0 -1 -1 -1 -1 -1 -1 -1 -1 -2 -2 -2 -3 -3 -3 -3 -4 -4 -4
6 7 8 8 9 11 11 11 11 9 10 9 8 4 4 2 2 1 1 0 0 -0 -1 -2 -2 -1 -1 -2 -2 -1 -2 -2 -2 -2 -2 -2 -2 -3 -3 -4 -4 -5 -5 -5
6 8 9 8 8 9 10 9 9 9 6 5 6 4 3 1 1 0 -1 -1 -1 -1 -1 -2 -2 -2 -2 -2 -2 -2 -2 -2 -2 -3 -3 -4 -4 -3 -4 -4 -4 -5 -5 -5
10 10 9 8 7 7 8 7 7 7 6 5 3 2 1 -0 -1 -1 -1 -1 -1 -1 -2 -2 -2 -2 -2 -2 -2 -3 -3 -3 -4 -4 -4 -5 -6 -6 -6 -4 -6 -6 -7 -7
11 10 4 5 5 5 6 5 4 4 3 2 1 0 -0 -1 -2 -1 -1 -2 -2 -2 -2 -2 -2 -2 -2 -3 -3 -3 -4 -5 -5 -5 -6 -7 -7 -8 -8 -9 -9 -7 -7 -8
7 9 9 6 4 4 4 3 2 1 0 -0 -1 -1 -1 -1 -2 -2 -2 -2 -2 -2 -1 -2 -2 -3 -3 -4 -4 -5 -5 -6 -6 -7 -7 -8 -9 -9 -10 -10 -11 -11 -9 -8
5 7 5 5 3 2 2 1 2 -1 -1 -1 -1 -1 -2 -2 -2 -2 -2 -2 -2 -2 -2 -3 -4 -4 -5 -5 -6 -6 -6 -7 -8 -8 -9 -10 -11 -11 -12 -12 -12 -11 -10 -9
3 -1 0 0 1 0 1 0 0 -1 -1 -1 -1 -2 -2 -2 -2 -2 -2 -2 -3 -3 -4 -5 -5 -6 -6 -7 -7 -7 -8 -8 -9 -10 -11 -12 -12 -12 -13 -13 -12 -12 -11 -10
6 5 3 4 1 -0 -1 -0 -1 -1 -1 -2 -2 -2 -2 -2 -2 -2 -3 -4 -4 -5 -5 -6 -6 -7 -7 -8 -8 -9 -10 -10 -11 -12 -12 -12 -12 -13 -13 -13 -13 -13 -12 -12
5 4 2 1 1 0 -0 -1 -1 -1 -2 -2 -2 -2 -2 -3 -3 -3 -4 -5 -6 -6 -6 -7 -7 -8 -9 -9 -10 -11 -11 -11 -12 -12 -13 -13 -13 -13 -14 -14 -14 -14 -14 -13
2 1 1 0 -0 0 -1 -2 -2 -2 -2 -3 -3 -3 -3 -3 -4 -5 -5 -6 -6 -7 -8 -8 -9 -9 -10 -10 -11 -11 -12 -12 -13 -13 -14 -14 -14 -14 -14 -15 -15 -15 -15 -15
1 0 -0 -0 -1 -2 -2 -2 -2 -2 -3 -3 -3 -3 -4 -4 -5 -6 -7 -7 -8 -9 -9 -9 -10 -10 -11 -11 -12 -13 -13 -13 -14 -14 -14 -15 -15 -15 -15 -16 -16 -16 -16 -16
-0 -0 -1 -2 -3 -3 -2 -2 -2 -3 -3 -4 -4 -4 -5 -6 -7 -7 -8 -8 -9 -10 -10 -11 -12 -12 -12 -12 -13 -14 -14 -14 -15 -15 -15 -16 -16 -16 -17 -17 -17 -17 -17 -17
-1 -2 -2 -3 -4 -4 -4 -4 -4 -4 -4 -5 -5 -6 -6 -7 -8 -8 -9 -10 -11 -12 -13 -13 -14 -14 -14 -14 -14 -15 -15 -15 -15 -16 -16 -17 -17 -18 -18 -18 -18 -18 -18 -18
-3 -3 -4 -4 -4 -4 -4 -5 -5 -6 -6 -6 -6 -7 -8 -8 -9 -10 -11 -12 -13 -14 -15 -15 -15 -15 -15 -15 -15 -15 -15 -16 -16 -16 -17 -17 -18 -18 -18 -18 -18 -18 -19 -19
-4 -4 -5 -5 -5 -5 -5 -6 -6 -7 -7 -8 -8 -9 -9 -9 -10 -11 -13 -14 -14 -15 -15 -16 -16 -15 -15 -15 -15 -16 -16 -17 -17 -17 -18 -18 -18 -19 -19 -19 -19 -19 -19 -19
-5 -5 -6 -5 -6 -6 -6 -7 -7 -8 -9 -9 -9 -10 -10 -11 -12 -13 -14 -15 -16 -16 -16 -16 -16 -16 -16 -16 -16 -17 -17 -18 -18 -18 -18 -19 -19 -19 -19 -19 -19 -19 -20 -20
-5 -5 -6 -7 -8 -8 -9 -9 -10 -10 -10 -10 -11 -11 -12 -13 -14 -15 -16 -16 -16 -17 -17 -17 -17 -17 -17 -17 -17 -18 -18 -18 -19 -19 -19 -19 -19 -19 -20 -20 -20 -20 -20 -20

GFSNGP_850_temp_048.txt.gz
Temp
13 14 14 15 14 12 13 12 12 13 11 13 13 12 13 15 15 16 17 16 16 16 15 15 14 15 15 15 14 13 12 11 9 7 7 6 5 5 3 3 1 0 -0 -0
13 13 13 15 14 12 13 13 12 12 12 12 12 12 12 12 13 13 13 13 15 15 14 14 14 13 12 12 11 11 9 8 7 7 6 5 4 3 1 0 -1 -1 0 -0
12 10 12 9 12 12 13 12 13 12 12 10 11 10 10 11 12 12 12 13 14 15 14 14 13 12 11 10 9 9 7 7 6 5 4 3 1 0 -1 -1 -0 0 -0 -1
6 7 9 13 12 13 12 12 11 11 11 10 9 8 9 10 11 12 12 13 13 13 13 13 13 11 10 9 8 7 6 5 4 3 1 0 -1 -0 0 0 -0 -1 -1 -1
8 7 10 13 11 11 12 12 10 9 7 8 9 9 7 9 10 11 11 12 12 12 12 12 11 10 8 7 6 5 4 3 1 0 0 -0 0 0 0 -1 -1 -1 -1 -1
4 7 8 10 12 12 12 10 9 9 7 8 8 8 6 7 8 9 10 11 11 10 10 9 8 6 6 5 4 3 1 1 0 0 -0 0 -0 -0 -1 -1 -1 -1 -1 -1
1 5 7 9 12 13 11 10 11 10 10 9 8 8 8 7 7 8 8 8 7 7 7 6 4 4 4 2 2 1 1 0 1 0 -1 -1 -1 -1 -1 -1 -1 -1 -1 -2
3 4 9 11 11 11 10 12 13 12 11 10 11 8 7 7 7 6 6 5 5 5 3 2 2 3 2 2 0 0 -0 -1 -1 -1 -1 -1 -1 -1 -2 -2 -2 -2 -3 -2
8 8 10 11 11 13 14 13 12 13 12 13 11 7 6 6 5 4 4 4 3 3 2 1 1 1 1 -0 -1 -1 -1 -1 -1 -1 -1 -2 -2 -2 -2 -2 -3 -3 -4 -4
9 9 8 10 11 12 13 14 13 13 13 12 11 7 6 4 3 3 2 2 2 2 1 0 -0 0 -0 -1 -1 -1 -1 -1 -1 -1 -1 -2 -2 -2 -3 -3 -4 -4 -5 -5
7 7 7 8 9 11 12 13 12 12 12 11 10 6 5 3 2 2 1 1 1 1 0 -1 -1 -0 -1 -1 -1 -1 -1 -2 -2 -2 -2 -2 -2 -3 -3 -4 -5 -6 -6 -7
9 9 11 11 11 10 11 11 12 12 8 7 8 7 4 2 1 1 0 -0 -0 -1 -1 -1 -1 -1 -1 -1 -1 -2 -2 -2 -2 -3 -3 -4 -4 -4 -4 -5 -6 -6 -7 -8
12 12 11 11 10 9 10 9 9 9 9 7 5 5 3 1 0 0 -1 -1 -1 -1 -1 -2 -2 -2 -2 -2 -2 -3 -3 -3 -4 -4 -4 -5 -5 -6 -6 -5 -6 -7 -8 -9
11 10 5 7 7 7 8 7 7 6 5 5 4 2 1 1 -1 -1 -1 -1 -2 -2 -2 -2 -2 -2 -3 -3 -3 -4 -4 -4 -5 -6 -6 -7 -7 -8 -9 -9 -9 -8 -9 -10
7 9 11 8 6 5 6 6 5 4 3 2 1 1 0 -1 -1 -1 -2 -2 -2 -2 -2 -3 -3 -3 -3 -4 -4 -5 -5 -6 -6 -7 -8 -8 -9 -9 -10 -11 -12 -12 -11 -11
6 7 6 7 4 4 4 3 4 2 1 0 -0 -1 -1 -1 -2 -2 -2 -3 -2 -2 -3 -3 -4 -4 -4 -5 -5 -6 -7 -7 -8 -8 -9 -10 -10 -11 -11 -12 -12 -13 -13 -13
5 0 2 1 2 1 2 2 3 2 0 -1 -1 -2 -2 -2 -2 -3 -3 -3 -3 -3 -4 -4 -5 -5 -6 -6 -7 -7 -8 -8 -9 -10 -10 -11 -11 -12 -13 -13 -13 -13 -14 -14
6 6 4 5 4 2 1 0 0 -0 -1 -1 -2 -2 -2 -2 -2 -3 -3 -4 -4 -4 -5 -5 -6 -6 -7 -8 -8 -9 -9 -10 -10 -11 -11 -12 -12 -13 -14 -14 -14 -14 -14 -14
6 5 4 3 2 1 1 -0 -1 -1 -2 -2 -3 -3 -3 -3 -3 -3 -4 -5 -5 -6 -6 -6 -7 -8 -8 -8 -9 -10 -10 -11 -11 -12 -12 -13 -13 -14 -14 -14 -15 -15 -15 -15
3 2 1 1 0 1 -1 -2 -2 -3 -3 -3 -3 -3 -3 -3 -4 -4 -5 -6 -6 -6 -7 -7 -8 -9 -9 -10 -10 -11 -11 -12 -12 -13 -13 -13 -14 -14 -15 -15 -15 -15 -16 -16
1 1 1 0 -1 -2 -2 -3 -3 -4 -3 -3 -3 -3 -3 -4 -5 -5 -6 -6 -7 -7 -8 -9 -9 -10 -10 -11 -11 -12 -12 -13 -13 -13 -14 -14 -15 -15 -15 -16 -16 -16 -17 -17
1 0 -1 -1 -2 -3 -3 -3 -3 -3 -4 -4 -4 -4 -4 -5 -6 -6 -7 -7 -8 -9 -9 -10 -11 -11 -11 -11 -12 -13 -14 -14 -14 -15 -15 -15 -15 -16 -16 -16 -17 -17 -17 -18
-1 -1 -2 -2 -3 -3 -4 -4 -5 -5 -4 -4 -4 -5 -6 -6 -7 -7 -8 -9 -9 -10 -11 -11 -12 -12 -13 -13 -14 -14 -15 -15 -15 -16 -16 -16 -16 -17 -17 -17 -18 -18 -18 -19
-2 -3 -3 -3 -4 -5 -5 -6 -6 -5 -5 -6 -6 -7 -7 -7 -8 -9 -9 -10 -11 -12 -13 -13 -14 -15 -15 -15 -15 -16 -16 -16 -16 -17 -17 -17 -17 -18 -18 -18 -18 -19 -19 -19
-3 -4 -4 -4 -5 -5 -6 -6 -6 -7 -7 -7 -8 -8 -9 -9 -9 -10 -11 -12 -13 -14 -14 -15 -15 -16 -17 -17 -17 -17 -17 -17 -17 -17 -17 -17 -18 -18 -18 -19 -19 -19 -19 -19
-4 -5 -5 -5 -5 -6 -7 -7 -7 -8 -9 -9 -10 -10 -10 -11 -11 -12 -13 -13 -14 -15 -16 -16 -17 -17 -18 -18 -18 -18 -18 -18 -18 -18 -18 -18 -18 -19 -19 -19 -19 -20 -20 -20
-5 -6 -6 -7 -8 -8 -9 -9 -9 -10 -10 -11 -11 -12 -12 -12 -13 -13 -14 -15 -16 -17 -17 -17 -18 -19 -19 -19 -19 -18 -18 -18 -18 -18 -19 -19 -19 -19 -19 -20 -20 -20 -20 -20

GFSNGP_850_temp_051.txt.gz
Temp
13 14 14 15 15 13 14 15 15 16 14 17 16 16 14 13 14 14 14 14 14 14 14 15 14 14 14 13 12 12 11 10 9 8 8 7 7 6 5 4 3 2 1 0
13 13 13 14 14 14 14 14 13 14 14 15 13 12 12 11 12 11 12 12 13 13 13 13 13 12 12 11 11 10 9 8 8 7 6 5 4 3 2 2 1 1 1 0
13 11 13 12 13 14 14 13 15 14 15 13 13 12 10 9 10 10 10 12 13 13 13 13 12 11 11 10 9 8 7 6 6 5 4 3 3 2 1 -0 -0 0 -0 -1
10 9 12 15 12 14 14 13 13 13 14 13 12 7 8 8 10 10 10 11 12 12 13 12 12 11 10 8 7 6 5 4 3 3 2 1 -1 -1 -0 0 -0 -0 -0 -1
10 12 12 14 13 13 14 16 13 14 12 9 7 7 6 7 9 9 10 11 11 11 11 10 9 8 8 7 5 5 4 2 1 1 1 0 -0 -0 0 -1 -0 -1 -1 -1
7 11 12 13 13 12 13 14 12 12 10 8 8 12 11 7 8 8 9 9 9 9 8 8 7 6 6 5 4 3 2 1 0 0 1 1 0 -1 -1 -1 -1 -1 -1 -1
7 10 11 11 12 13 14 15 12 11 9 9 10 10 9 7 7 7 7 7 7 6 7 6 4 4 4 2 2 1 0 0 1 1 0 -1 -1 -1 -1 -1 -1 -1 -2 -2
8 9 13 10 11 13 14 13 14 10 9 8 10 8 7 6 6 5 6 5 5 6 4 3 2 3 2 2 1 1 0 0 0 -0 -1 -1 -1 -1 -1 -2 -2 -2 -2 -2
12 12 12 11 14 14 15 15 13 12 10 10 9 6 6 5 5 4 4 4 4 4 2 1 1 2 2 1 0 -0 -0 -0 -1 -1 -1 -1 -2 -2 -2 -3 -3 -3 -4 -4
11 12 10 11 12 13 13 14 14 12 12 11 10 6 5 4 4 3 3 3 2 2 2 1 1 1 1 -0 -1 -1 -1 -1 -1 -1 -2 -2 -2 -3 -3 -4 -4 -5 -6 -6
9 9 8 10 12 13 12 13 12 11 12 11 11 6 6 4 3 2 2 1 1 1 1 -0 -0 -0 -1 -1 -1 -1 -1 -1 -2 -2 -2 -2 -3 -4 -4 -5 -6 -7 -9 -11
11 13 13 15 16 14 12 12 12 12 10 9 10 8 5 3 2 1 1 0 0 -0 -0 -1 -1 -1 -1 -2 -2 -2 -2 -2 -2 -3 -3 -4 -4 -5 -5 -6 -7 -8 -9 -10
12 14 13 13 12 12 11 11 11 11 11 9 6 6 4 3 1 0 -0 -0 -0 -1 -1 -2 -2 -2 -2 -2 -2 -2 -3 -3 -4 -4 -5 -5 -6 -6 -7 -8 -8 -8 -9 -10
11 12 9 10 9 9 10 9 8 8 7 7 6 4 3 2 -0 -0 -1 -1 -1 -1 -2 -2 -2 -2 -2 -3 -3 -3 -4 -4 -5 -6 -6 -7 -7 -8 -8 -9 -10 -10 -10 -11
10 10 10 10 10 6 7 7 6 6 5 4 3 3 2 0 -1 -1 -1 -2 -2 -2 -2 -3 -3 -3 -3 -4 -4 -4 -5 -6 -6 -7 -8 -8 -9 -9 -9 -10 -10 -11 -11 -11
9 7 8 8 8 6 6 5 6 4 3 3 2 1 0 -0 -1 -2 -2 -2 -2 -2 -3 -3 -4 -4 -4 -5 -5 -6 -6 -7 -7 -8 -9 -9 -9 -10 -10 -11 -11 -12 -12 -12
5 2 4 5 5 5 4 4 5 4 2 1 0 -0 -1 -2 -3 -3 -3 -3 -3 -3 -4 -4 -4 -5 -5 -5 -6 -7 -7 -8 -9 -9 -10 -10 -11 -11 -12 -12 -12 -13 -13 -14
6 6 5 5 3 2 2 2 2 1 -1 -1 -2 -2 -3 -3 -3 -3 -3 -3 -4 -4 -4 -5 -5 -5 -6 -7 -7 -8 -9 -9 -10 -10 -11 -11 -12 -12 -13 -13 -13 -14 -14 -14
5 6 4 3 3 3 2 1 -0 -0 -1 -2 -3 -3 -4 -3 -2 -3 -3 -4 -4 -5 -5 -6 -6 -6 -7 -8 -9 -9 -10 -10 -11 -11 -12 -12 -13 -13 -14 -14 -14 -15 -15 -15
3 1 2 3 1 1 -1 -2 -2 -2 -3 -3 -3 -4 -3 -3 -3 -3 -4 -4 -5 -6 -6 -7 -7 -8 -9 -9 -10 -10 -11 -11 -12 -12 -13 -13 -14 -14 -15 -15 -15 -16 -16 -16
1 -0 -0 -0 -1 -1 -1 -2 -2 -3 -3 -4 -4 -3 -3 -4 -4 -4 -5 -6 -6 -7 -8 -8 -9 -9 -10 -10 -11 -11 -12 -12 -13 -13 -14 -14 -15 -15 -16 -16 -16 -17 -17 -17
-1 -1 -1 -2 -2 -2 -2 -3 -3 -3 -4 -4 -4 -5 -6 -5 -6 -7 -7 -8 -8 -9 -9 -10 -10 -11 -11 -11 -12 -12 -13 -14 -14 -15 -15 -16 -16 -16 -17 -17 -17 -17 -18 -18
-2 -2 -3 -3 -3 -3 -4 -4 -5 -5 -5 -5 -6 -6 -6 -6 -7 -8 -8 -9 -10 -11 -11 -12 -12 -12 -12 -13 -13 -14 -14 -15 -15 -16 -16 -17 -17 -17 -18 -18 -18 -18 -18 -18
-3 -3 -3 -4 -4 -4 -5 -6 -6 -5 -6 -7 -7 -7 -7 -8 -9 -9 -10 -10 -11 -12 -13 -13 -13 -13 -14 -14 -15 -15 -16 -16 -17 -17 -17 -18 -18 -18 -19 -19 -19 -19 -19 -19
-4 -4 -4 -5 -5 -6 -6 -7 -7 -9 -9 -8 -9 -9 -9 -10 -10 -11 -11 -12 -13 -14 -14 -14 -14 -14 -15 -16 -16 -17 -17 -17 -18 -18 -19 -19 -19 -19 -19 -19 -19 -19 -19 -19
-5 -5 -6 -6 -6 -7 -7 -8 -8 -9 -10 -10 -10 -10 -11 -11 -12 -13 -13 -13 -14 -15 -15 -15 -15 -16 -16 -17 -18 -18 -19 -19 -19 -19 -19 -20 -19 -19 -19 -19 -19 -19 -19 -20
-7 -7 -7 -8 -8 -9 -9 -9 -9 -10 -10 -11 -11 -11 -12 -13 -13 -14 -14 -15 -15 -16 -16 -16 -17 -18 -18 -19 -19 -19 -20 -20 -20 -20 -20 -20 -20 -20 -20 -20 -20 -20 -20 -20